Wetterdaten: Freitag, 16.07.2010
Datum Zeit Temp. Innen Temp. Aussen UV X Diff Temp. Feuchte Inne Feuchte Auss Sonnenschein Luftdruck Regen ab 0,1 Wind Sonnenschein Windben
16.07.2010 00:00 25,6 C 18,0 C 0,0 UV-I 0,0 C 44 % 63 % 0 % 1017,9 hPa 0,0 l/m 0,4 km/h (0 Bft) 0 min 3,2 km/h (1 Bft)
16.07.2010 00:02 25,6 C 18,0 C 0,0 UV-I 0,0 C 44 % 63 % 0 % 1017,9 hPa 0,0 l/m 0,4 km/h (0 Bft) 0 min 0,0 km/h (0 Bft)
16.07.2010 00:04 25,6 C 18,0 C 0,0 UV-I 0,0 C 44 % 63 % 0 % 1017,9 hPa 0,0 l/m 0,4 km/h (0 Bft) 0 min 0,0 km/h (0 Bft)
16.07.2010 00:06 25,5 C 17,9 C 0,0 UV-I 0,0 C 44 % 64 % 0 % 1017,9 hPa 0,0 l/m 0,4 km/h (0 Bft) 0 min 0,0 km/h (0 Bft)
16.07.2010 00:08 25,6 C 17,9 C 0,0 UV-I 0,0 C 44 % 64 % 0 % 1017,9 hPa 0,0 l/m 0,0 km/h (0 Bft) 0 min 0,0 km/h (0 Bft)
16.07.2010 00:10 25,5 C 17,9 C 0,0 UV-I 0,0 C 44 % 64 % 0 % 1017,9 hPa 0,0 l/m 0,0 km/h (0 Bft) 0 min 0,0 km/h (0 Bft)
16.07.2010 00:12 25,5 C 17,8 C 0,0 UV-I 0,0 C 44 % 65 % 0 % 1017,9 hPa 0,0 l/m 0,0 km/h (0 Bft) 0 min 0,0 km/h (0 Bft)
16.07.2010 00:14 25,5 C 17,9 C 0,0 UV-I 0,0 C 44 % 65 % 0 % 1017,9 hPa 0,0 l/m 0,0 km/h (0 Bft) 0 min 0,0 km/h (0 Bft)
16.07.2010 00:16 25,5 C 17,7 C 0,0 UV-I 0,0 C 44 % 65 % 0 % 1017,9 hPa 0,0 l/m 0,0 km/h (0 Bft) 0 min 0,0 km/h (0 Bft)
16.07.2010 00:18 25,5 C 17,7 C 0,0 UV-I 0,0 C 44 % 65 % 0 % 1017,9 hPa 0,0 l/m 0,0 km/h (0 Bft) 0 min 0,0 km/h (0 Bft)
16.07.2010 00:20 25,5 C 17,6 C 0,0 UV-I 0,0 C 44 % 65 % 0 % 1017,9 hPa 0,0 l/m 0,0 km/h (0 Bft) 0 min 0,0 km/h (0 Bft)
16.07.2010 00:22 25,5 C 17,7 C 0,0 UV-I 0,0 C 44 % 65 % 0 % 1017,9 hPa 0,0 l/m 0,0 km/h (0 Bft) 0 min 0,0 km/h (0 Bft)
16.07.2010 00:24 25,4 C 17,6 C 0,0 UV-I 0,0 C 44 % 65 % 0 % 1017,9 hPa 0,0 l/m 0,4 km/h (0 Bft) 0 min 3,9 km/h (1 Bft)
16.07.2010 00:26 25,4 C 17,5 C 0,0 UV-I 0,0 C 44 % 65 % 0 % 1017,9 hPa 0,0 l/m 0,4 km/h (0 Bft) 0 min 3,9 km/h (1 Bft)
16.07.2010 00:28 25,4 C 17,5 C 0,0 UV-I 0,0 C 44 % 65 % 0 % 1017,9 hPa 0,0 l/m 0,4 km/h (0 Bft) 0 min 0,0 km/h (0 Bft)
16.07.2010 00:30 25,4 C 17,5 C 0,0 UV-I 0,0 C 44 % 65 % 0 % 1018,0 hPa 0,0 l/m 0,4 km/h (0 Bft) 0 min 0,0 km/h (0 Bft)
16.07.2010 00:32 25,4 C 17,4 C 0,0 UV-I 0,0 C 44 % 65 % 0 % 1018,0 hPa 0,0 l/m 0,4 km/h (0 Bft) 0 min 0,0 km/h (0 Bft)
16.07.2010 00:34 25,4 C 17,5 C 0,0 UV-I 0,0 C 44 % 65 % 0 % 1018,0 hPa 0,0 l/m 0,0 km/h (0 Bft) 0 min 0,0 km/h (0 Bft)
16.07.2010 00:36 25,4 C 17,5 C 0,0 UV-I 0,0 C 44 % 65 % 0 % 1018,0 hPa 0,0 l/m 0,0 km/h (0 Bft) 0 min 0,0 km/h (0 Bft)
16.07.2010 00:38 25,4 C 17,5 C 0,0 UV-I 0,0 C 44 % 65 % 0 % 1018,0 hPa 0,0 l/m 0,0 km/h (0 Bft) 0 min 0,0 km/h (0 Bft)
16.07.2010 00:40 25,2 C 17,4 C 0,0 UV-I 0,0 C 44 % 66 % 0 % 1018,0 hPa 0,0 l/m 0,0 km/h (0 Bft) 0 min 4,5 km/h (1 Bft)
16.07.2010 00:42 25,4 C 17,3 C 0,0 UV-I 0,0 C 44 % 66 % 0 % 1018,0 hPa 0,0 l/m 0,4 km/h (0 Bft) 0 min 0,0 km/h (0 Bft)
16.07.2010 00:44 25,2 C 17,3 C 0,0 UV-I 0,0 C 44 % 66 % 0 % 1018,0 hPa 0,0 l/m 0,4 km/h (0 Bft) 0 min 0,0 km/h (0 Bft)
16.07.2010 00:46 25,2 C 17,2 C 0,0 UV-I 0,0 C 44 % 66 % 0 % 1018,0 hPa 0,0 l/m 0,4 km/h (0 Bft) 0 min 4,2 km/h (1 Bft)
16.07.2010 00:48 25,2 C 17,2 C 0,0 UV-I 0,0 C 45 % 66 % 0 % 1017,8 hPa 0,0 l/m 0,4 km/h (0 Bft) 0 min 4,2 km/h (1 Bft)
16.07.2010 00:50 25,2 C 17,2 C 0,0 UV-I 0,0 C 44 % 66 % 0 % 1017,8 hPa 0,0 l/m 0,4 km/h (0 Bft) 0 min 0,0 km/h (0 Bft)
16.07.2010 00:52 25,3 C 17,3 C 0,0 UV-I 0,0 C 44 % 66 % 0 % 1017,8 hPa 0,0 l/m 0,4 km/h (0 Bft) 0 min 0,0 km/h (0 Bft)
16.07.2010 00:54 25,3 C 17,2 C 0,0 UV-I 0,0 C 45 % 66 % 0 % 1017,8 hPa 0,0 l/m 0,4 km/h (0 Bft) 0 min 0,0 km/h (0 Bft)
16.07.2010 00:56 25,3 C 17,2 C 0,0 UV-I 0,0 C 44 % 66 % 0 % 1017,8 hPa 0,0 l/m 0,0 km/h (0 Bft) 0 min 0,0 km/h (0 Bft)
16.07.2010 00:58 25,3 C 17,1 C 0,0 UV-I 0,0 C 45 % 66 % 0 % 1017,8 hPa 0,0 l/m 0,0 km/h (0 Bft) 0 min 0,0 km/h (0 Bft)
16.07.2010 01:00 25,2 C 17,1 C 0,0 UV-I 0,0 C 45 % 66 % 0 % 1017,8 hPa 0,0 l/m 0,0 km/h (0 Bft) 0 min 0,0 km/h (0 Bft)
16.07.2010 01:02 25,2 C 17,1 C 0,0 UV-I 0,0 C 45 % 67 % 0 % 1017,8 hPa 0,0 l/m 0,0 km/h (0 Bft) 0 min 0,0 km/h (0 Bft)
16.07.2010 01:04 25,2 C 17,1 C 0,0 UV-I 0,0 C 45 % 66 % 0 % 1017,8 hPa 0,0 l/m 0,0 km/h (0 Bft) 0 min 0,0 km/h (0 Bft)
16.07.2010 01:06 25,2 C 17,1 C 0,0 UV-I 0,0 C 44 % 66 % 0 % 1017,8 hPa 0,0 l/m 0,0 km/h (0 Bft) 0 min 0,0 km/h (0 Bft)
16.07.2010 01:08 25,2 C 17,1 C 0,0 UV-I 0,0 C 45 % 66 % 0 % 1017,8 hPa 0,0 l/m 0,0 km/h (0 Bft) 0 min 0,0 km/h (0 Bft)
16.07.2010 01:10 25,2 C 17,0 C 0,0 UV-I 0,0 C 45 % 66 % 0 % 1017,8 hPa 0,0 l/m 0,0 km/h (0 Bft) 0 min 4,8 km/h (1 Bft)
16.07.2010 01:14 25,2 C 17,0 C 0,0 UV-I 0,0 C 44 % 66 % 0 % 1017,8 hPa 0,0 l/m 0,8 km/h (0 Bft) 0 min 4,2 km/h (1 Bft)
16.07.2010 01:16 25,2 C 17,1 C 0,0 UV-I 0,0 C 45 % 66 % 0 % 1017,8 hPa 0,0 l/m 0,8 km/h (0 Bft) 0 min 4,2 km/h (1 Bft)
16.07.2010 01:18 25,2 C 17,1 C 0,0 UV-I 0,0 C 45 % 67 % 0 % 1017,8 hPa 0,0 l/m 0,8 km/h (0 Bft) 0 min 0,0 km/h (0 Bft)
16.07.2010 01:20 25,2 C 17,0 C 0,0 UV-I 0,0 C 45 % 66 % 0 % 1017,8 hPa 0,0 l/m 1,2 km/h (1 Bft) 0 min 6,1 km/h (2 Bft)
16.07.2010 01:22 25,2 C 17,1 C 0,0 UV-I 0,0 C 45 % 66 % 0 % 1017,8 hPa 0,0 l/m 1,2 km/h (1 Bft) 0 min 3,5 km/h (1 Bft)
16.07.2010 01:24 25,1 C 17,1 C 0,0 UV-I 0,0 C 45 % 66 % 0 % 1017,8 hPa 0,0 l/m 0,8 km/h (0 Bft) 0 min 0,0 km/h (0 Bft)
16.07.2010 01:26 25,1 C 17,1 C 0,0 UV-I 0,0 C 45 % 66 % 0 % 1017,8 hPa 0,0 l/m 1,2 km/h (1 Bft) 0 min 3,2 km/h (1 Bft)
16.07.2010 01:28 25,1 C 17,1 C 0,0 UV-I 0,0 C 44 % 66 % 0 % 1017,7 hPa 0,0 l/m 1,6 km/h (1 Bft) 0 min 3,2 km/h (1 Bft)
16.07.2010 01:30 25,1 C 17,1 C 0,0 UV-I 0,0 C 45 % 66 % 0 % 1017,7 hPa 0,0 l/m 2,0 km/h (1 Bft) 0 min 0,0 km/h (0 Bft)
16.07.2010 01:32 25,1 C 17,1 C 0,0 UV-I 0,0 C 45 % 66 % 0 % 1017,7 hPa 0,0 l/m 2,0 km/h (1 Bft) 0 min 4,2 km/h (1 Bft)
16.07.2010 01:34 25,1 C 17,1 C 0,0 UV-I 0,0 C 45 % 66 % 0 % 1017,7 hPa 0,0 l/m 1,6 km/h (1 Bft) 0 min 4,2 km/h (1 Bft)
16.07.2010 01:36 25,1 C 17,1 C 0,0 UV-I 0,0 C 45 % 66 % 0 % 1017,7 hPa 0,0 l/m 1,6 km/h (1 Bft) 0 min 0,0 km/h (0 Bft)
16.07.2010 01:38 25,1 C 17,1 C 0,0 UV-I 0,0 C 45 % 66 % 0 % 1017,7 hPa 0,0 l/m 0,8 km/h (0 Bft) 0 min 0,0 km/h (0 Bft)
16.07.2010 01:40 25,1 C 17,1 C 0,0 UV-I 0,0 C 45 % 66 % 0 % 1017,7 hPa 0,0 l/m 0,4 km/h (0 Bft) 0 min 0,0 km/h (0 Bft)
16.07.2010 01:42 25,1 C 17,1 C 0,0 UV-I 0,0 C 44 % 66 % 0 % 1017,7 hPa 0,0 l/m 0,4 km/h (0 Bft) 0 min 0,0 km/h (0 Bft)
16.07.2010 01:44 25,1 C 17,1 C 0,0 UV-I 0,0 C 45 % 66 % 0 % 1017,7 hPa 0,0 l/m 0,4 km/h (0 Bft) 0 min 0,0 km/h (0 Bft)
16.07.2010 01:46 25,0 C 16,9 C 0,0 UV-I 0,0 C 45 % 66 % 0 % 1017,7 hPa 0,0 l/m 0,0 km/h (0 Bft) 0 min 0,0 km/h (0 Bft)
16.07.2010 01:48 25,0 C 16,9 C 0,0 UV-I 0,0 C 44 % 66 % 0 % 1017,5 hPa 0,0 l/m 0,4 km/h (0 Bft) 0 min 3,5 km/h (1 Bft)
16.07.2010 01:50 25,0 C 16,9 C 0,0 UV-I 0,0 C 45 % 66 % 0 % 1017,5 hPa 0,0 l/m 0,4 km/h (0 Bft) 0 min 3,5 km/h (1 Bft)
16.07.2010 01:52 25,0 C 16,9 C 0,0 UV-I 0,0 C 45 % 66 % 0 % 1017,5 hPa 0,0 l/m 0,0 km/h (0 Bft) 0 min 0,0 km/h (0 Bft)
16.07.2010 01:54 25,0 C 16,8 C 0,0 UV-I 0,0 C 44 % 67 % 0 % 1017,5 hPa 0,0 l/m 0,0 km/h (0 Bft) 0 min 0,0 km/h (0 Bft)
16.07.2010 01:56 25,0 C 16,8 C 0,0 UV-I 0,0 C 44 % 67 % 0 % 1017,5 hPa 0,0 l/m 0,0 km/h (0 Bft) 0 min 0,0 km/h (0 Bft)
16.07.2010 01:58 25,0 C 16,8 C 0,0 UV-I 0,0 C 45 % 67 % 0 % 1017,5 hPa 0,0 l/m 0,4 km/h (0 Bft) 0 min 0,0 km/h (0 Bft)
16.07.2010 02:00 25,0 C 16,9 C 0,0 UV-I 0,0 C 45 % 67 % 0 % 1017,5 hPa 0,0 l/m 0,4 km/h (0 Bft) 0 min 0,0 km/h (0 Bft)
16.07.2010 02:02 25,0 C 16,8 C 0,0 UV-I 0,0 C 45 % 67 % 0 % 1017,5 hPa 0,0 l/m 0,4 km/h (0 Bft) 0 min 0,0 km/h (0 Bft)
16.07.2010 02:04 24,9 C 16,8 C 0,0 UV-I 0,0 C 45 % 67 % 0 % 1017,5 hPa 0,0 l/m 0,8 km/h (0 Bft) 0 min 4,2 km/h (1 Bft)
16.07.2010 02:06 24,9 C 16,8 C 0,0 UV-I 0,0 C 45 % 67 % 0 % 1017,5 hPa 0,0 l/m 1,2 km/h (1 Bft) 0 min 4,8 km/h (1 Bft)
16.07.2010 02:08 24,9 C 16,8 C 0,0 UV-I 0,0 C 45 % 67 % 0 % 1017,4 hPa 0,0 l/m 1,2 km/h (1 Bft) 0 min 4,8 km/h (1 Bft)
16.07.2010 02:10 24,9 C 16,8 C 0,0 UV-I 0,0 C 44 % 67 % 0 % 1017,4 hPa 0,0 l/m 1,2 km/h (1 Bft) 0 min 0,0 km/h (0 Bft)
16.07.2010 02:12 24,9 C 16,7 C 0,0 UV-I 0,0 C 45 % 67 % 0 % 1017,4 hPa 0,0 l/m 0,8 km/h (0 Bft) 0 min 0,0 km/h (0 Bft)
16.07.2010 02:14 24,9 C 16,7 C 0,0 UV-I 0,0 C 45 % 67 % 0 % 1017,4 hPa 0,0 l/m 0,8 km/h (0 Bft) 0 min 0,0 km/h (0 Bft)
16.07.2010 02:16 24,9 C 16,7 C 0,0 UV-I 0,0 C 45 % 67 % 0 % 1017,4 hPa 0,0 l/m 0,4 km/h (0 Bft) 0 min 0,0 km/h (0 Bft)
16.07.2010 02:20 24,9 C 16,6 C 0,0 UV-I 0,0 C 45 % 68 % 0 % 1017,4 hPa 0,0 l/m 0,4 km/h (0 Bft) 0 min 5,5 km/h (1 Bft)
16.07.2010 02:22 24,9 C 16,6 C 0,0 UV-I 0,0 C 45 % 67 % 0 % 1017,4 hPa 0,0 l/m 0,8 km/h (0 Bft) 0 min 5,8 km/h (2 Bft)
16.07.2010 02:24 24,8 C 16,6 C 0,0 UV-I 0,0 C 45 % 67 % 0 % 1017,4 hPa 0,0 l/m 1,2 km/h (1 Bft) 0 min 5,8 km/h (2 Bft)
16.07.2010 02:26 24,9 C 16,7 C 0,0 UV-I 0,0 C 45 % 68 % 0 % 1017,4 hPa 0,0 l/m 2,0 km/h (1 Bft) 0 min 4,8 km/h (1 Bft)
16.07.2010 02:28 24,8 C 16,7 C 0,0 UV-I 0,0 C 45 % 68 % 0 % 1017,6 hPa 0,0 l/m 2,4 km/h (1 Bft) 0 min 4,8 km/h (1 Bft)
16.07.2010 02:30 24,8 C 16,6 C 0,0 UV-I 0,0 C 45 % 68 % 0 % 1017,6 hPa 0,0 l/m 2,0 km/h (1 Bft) 0 min 6,8 km/h (2 Bft)
16.07.2010 02:32 24,8 C 16,6 C 0,0 UV-I 0,0 C 45 % 68 % 0 % 1017,6 hPa 0,0 l/m 2,8 km/h (1 Bft) 0 min 4,8 km/h (1 Bft)
16.07.2010 02:34 24,8 C 16,6 C 0,0 UV-I 0,0 C 45 % 68 % 0 % 1017,6 hPa 0,0 l/m 2,8 km/h (1 Bft) 0 min 4,8 km/h (1 Bft)
16.07.2010 02:36 24,8 C 16,7 C 0,0 UV-I 0,0 C 45 % 68 % 0 % 1017,6 hPa 0,0 l/m 2,8 km/h (1 Bft) 0 min 6,4 km/h (2 Bft)
16.07.2010 02:38 24,8 C 16,7 C 0,0 UV-I 0,0 C 45 % 68 % 0 % 1017,6 hPa 0,0 l/m 2,4 km/h (1 Bft) 0 min 6,4 km/h (2 Bft)
16.07.2010 02:40 24,8 C 16,7 C 0,0 UV-I 0,0 C 45 % 68 % 0 % 1017,6 hPa 0,0 l/m 2,4 km/h (1 Bft) 0 min 7,4 km/h (2 Bft)
16.07.2010 02:42 24,8 C 16,7 C 0,0 UV-I 0,0 C 45 % 68 % 0 % 1017,6 hPa 0,0 l/m 2,8 km/h (1 Bft) 0 min 5,8 km/h (2 Bft)
16.07.2010 02:44 24,8 C 16,6 C 0,0 UV-I 0,0 C 45 % 68 % 0 % 1017,6 hPa 0,0 l/m 2,4 km/h (1 Bft) 0 min 6,1 km/h (2 Bft)
16.07.2010 02:46 24,8 C 16,6 C 0,0 UV-I 0,0 C 45 % 68 % 0 % 1017,6 hPa 0,0 l/m 3,2 km/h (1 Bft) 0 min 6,1 km/h (2 Bft)
16.07.2010 02:48 24,8 C 16,6 C 0,0 UV-I 0,0 C 45 % 68 % 0 % 1017,8 hPa 0,0 l/m 3,2 km/h (1 Bft) 0 min 7,7 km/h (2 Bft)
16.07.2010 02:50 24,8 C 16,5 C 0,0 UV-I 0,0 C 45 % 68 % 0 % 1017,8 hPa 0,0 l/m 3,6 km/h (1 Bft) 0 min 9,3 km/h (2 Bft)
16.07.2010 02:52 24,8 C 16,5 C 0,0 UV-I 0,0 C 45 % 68 % 0 % 1017,8 hPa 0,0 l/m 4,4 km/h (1 Bft) 0 min 4,5 km/h (1 Bft)
16.07.2010 02:54 24,8 C 16,5 C 0,0 UV-I 0,0 C 45 % 68 % 0 % 1017,8 hPa 0,0 l/m 4,0 km/h (1 Bft) 0 min 4,5 km/h (1 Bft)
16.07.2010 02:56 24,8 C 16,4 C 0,0 UV-I 0,0 C 45 % 68 % 0 % 1017,8 hPa 0,0 l/m 4,0 km/h (1 Bft) 0 min 4,2 km/h (1 Bft)
16.07.2010 02:58 24,8 C 16,4 C 0,0 UV-I 0,0 C 45 % 68 % 0 % 1017,8 hPa 0,0 l/m 4,0 km/h (1 Bft) 0 min 5,1 km/h (1 Bft)
16.07.2010 03:00 24,7 C 16,4 C 0,0 UV-I 0,0 C 45 % 68 % 0 % 1017,8 hPa 0,0 l/m 3,6 km/h (1 Bft) 0 min 5,1 km/h (1 Bft)
16.07.2010 03:02 24,7 C 16,4 C 0,0 UV-I 0,0 C 45 % 68 % 0 % 1017,8 hPa 0,0 l/m 3,2 km/h (1 Bft) 0 min 4,2 km/h (1 Bft)
16.07.2010 03:04 24,7 C 16,4 C 0,0 UV-I 0,0 C 45 % 68 % 0 % 1017,8 hPa 0,0 l/m 3,6 km/h (1 Bft) 0 min 4,2 km/h (1 Bft)
16.07.2010 03:06 24,7 C 16,4 C 0,0 UV-I 0,0 C 45 % 68 % 0 % 1017,8 hPa 0,0 l/m 3,2 km/h (1 Bft) 0 min 3,9 km/h (1 Bft)
16.07.2010 03:08 24,7 C 16,4 C 0,0 UV-I 0,0 C 45 % 68 % 0 % 1017,8 hPa 0,0 l/m 3,2 km/h (1 Bft) 0 min 3,9 km/h (1 Bft)
16.07.2010 03:10 24,7 C 16,5 C 0,0 UV-I 0,0 C 45 % 68 % 0 % 1017,8 hPa 0,0 l/m 3,6 km/h (1 Bft) 0 min 5,8 km/h (2 Bft)
16.07.2010 03:14 24,7 C 16,5 C 0,0 UV-I 0,0 C 45 % 69 % 0 % 1017,8 hPa 0,0 l/m 2,8 km/h (1 Bft) 0 min 5,8 km/h (2 Bft)
16.07.2010 03:16 24,7 C 16,4 C 0,0 UV-I 0,0 C 45 % 69 % 0 % 1017,8 hPa 0,0 l/m 2,8 km/h (1 Bft) 0 min 4,5 km/h (1 Bft)
16.07.2010 03:20 24,6 C 16,3 C 0,0 UV-I 0,0 C 45 % 69 % 0 % 1017,8 hPa 0,0 l/m 2,4 km/h (1 Bft) 0 min 4,5 km/h (1 Bft)
16.07.2010 03:22 24,6 C 16,3 C 0,0 UV-I 0,0 C 45 % 69 % 0 % 1017,8 hPa 0,0 l/m 2,0 km/h (1 Bft) 0 min 3,9 km/h (1 Bft)
16.07.2010 03:24 24,6 C 16,3 C 0,0 UV-I 0,0 C 45 % 69 % 0 % 1017,8 hPa 0,0 l/m 2,0 km/h (1 Bft) 0 min 7,1 km/h (2 Bft)
16.07.2010 03:26 24,6 C 16,3 C 0,0 UV-I 0,0 C 45 % 69 % 0 % 1017,8 hPa 0,0 l/m 2,8 km/h (1 Bft) 0 min 7,1 km/h (2 Bft)
16.07.2010 03:28 24,6 C 16,3 C 0,0 UV-I 0,0 C 45 % 69 % 0 % 1017,6 hPa 0,0 l/m 3,2 km/h (1 Bft) 0 min 3,9 km/h (1 Bft)
16.07.2010 03:30 24,6 C 16,2 C 0,0 UV-I 0,0 C 45 % 70 % 0 % 1017,6 hPa 0,0 l/m 4,0 km/h (1 Bft) 0 min 10,6 km/h (2 Bft)
16.07.2010 03:32 24,6 C 16,3 C 0,0 UV-I 0,0 C 45 % 69 % 0 % 1017,6 hPa 0,0 l/m 4,4 km/h (1 Bft) 0 min 4,5 km/h (1 Bft)
16.07.2010 03:34 24,6 C 16,3 C 0,0 UV-I 0,0 C 45 % 70 % 0 % 1017,6 hPa 0,0 l/m 4,4 km/h (1 Bft) 0 min 6,1 km/h (2 Bft)
16.07.2010 03:36 24,6 C 16,2 C 0,0 UV-I 0,0 C 45 % 69 % 0 % 1017,6 hPa 0,0 l/m 3,6 km/h (1 Bft) 0 min 6,1 km/h (2 Bft)
16.07.2010 03:38 24,6 C 16,3 C 0,0 UV-I 0,0 C 45 % 69 % 0 % 1017,6 hPa 0,0 l/m 2,8 km/h (1 Bft) 0 min 4,5 km/h (1 Bft)
16.07.2010 03:40 24,6 C 16,1 C 0,0 UV-I 0,0 C 45 % 70 % 0 % 1017,6 hPa 0,0 l/m 3,2 km/h (1 Bft) 0 min 5,5 km/h (1 Bft)
16.07.2010 03:42 24,6 C 16,1 C 0,0 UV-I 0,0 C 45 % 70 % 0 % 1017,6 hPa 0,0 l/m 3,6 km/h (1 Bft) 0 min 6,1 km/h (2 Bft)
16.07.2010 03:44 24,6 C 16,1 C 0,0 UV-I 0,0 C 45 % 70 % 0 % 1017,6 hPa 0,0 l/m 2,8 km/h (1 Bft) 0 min 6,1 km/h (2 Bft)
16.07.2010 03:46 24,6 C 16,1 C 0,0 UV-I 0,0 C 45 % 70 % 0 % 1017,6 hPa 0,0 l/m 2,8 km/h (1 Bft) 0 min 0,0 km/h (0 Bft)
16.07.2010 03:48 24,5 C 16,1 C 0,0 UV-I 0,0 C 45 % 70 % 0 % 1017,4 hPa 0,0 l/m 2,8 km/h (1 Bft) 0 min 4,5 km/h (1 Bft)
16.07.2010 03:52 24,5 C 16,1 C 0,0 UV-I 0,0 C 45 % 70 % 0 % 1017,4 hPa 0,0 l/m 2,8 km/h (1 Bft) 0 min 7,4 km/h (2 Bft)
16.07.2010 03:54 24,5 C 16,1 C 0,0 UV-I 0,0 C 45 % 70 % 0 % 1017,4 hPa 0,0 l/m 2,4 km/h (1 Bft) 0 min 3,9 km/h (1 Bft)
16.07.2010 03:56 24,5 C 16,0 C 0,0 UV-I 0,0 C 45 % 70 % 0 % 1017,4 hPa 0,0 l/m 2,8 km/h (1 Bft) 0 min 4,2 km/h (1 Bft)
16.07.2010 03:58 24,5 C 16,0 C 0,0 UV-I 0,0 C 45 % 70 % 0 % 1017,4 hPa 0,0 l/m 3,2 km/h (1 Bft) 0 min 4,2 km/h (1 Bft)
16.07.2010 04:00 24,5 C 16,1 C 0,0 UV-I 0,0 C 45 % 70 % 0 % 1017,4 hPa 0,0 l/m 2,4 km/h (1 Bft) 0 min 0,0 km/h (0 Bft)
16.07.2010 04:02 24,5 C 16,1 C 0,0 UV-I 0,0 C 45 % 70 % 0 % 1017,4 hPa 0,0 l/m 2,8 km/h (1 Bft) 0 min 7,4 km/h (2 Bft)
16.07.2010 04:04 24,5 C 16,0 C 0,0 UV-I 0,0 C 45 % 70 % 0 % 1017,4 hPa 0,0 l/m 2,8 km/h (1 Bft) 0 min 7,4 km/h (2 Bft)
16.07.2010 04:06 24,5 C 16,0 C 0,0 UV-I 0,0 C 45 % 70 % 0 % 1017,4 hPa 0,0 l/m 2,4 km/h (1 Bft) 0 min 3,9 km/h (1 Bft)
16.07.2010 04:08 24,4 C 16,0 C 0,0 UV-I 0,0 C 45 % 70 % 0 % 1017,4 hPa 0,0 l/m 2,4 km/h (1 Bft) 0 min 3,9 km/h (1 Bft)
16.07.2010 04:10 24,4 C 15,9 C 0,0 UV-I 0,0 C 45 % 71 % 0 % 1017,4 hPa 0,0 l/m 2,8 km/h (1 Bft) 0 min 5,1 km/h (1 Bft)
16.07.2010 04:12 24,4 C 15,9 C 0,0 UV-I 0,0 C 45 % 70 % 0 % 1017,4 hPa 0,0 l/m 2,8 km/h (1 Bft) 0 min 5,1 km/h (1 Bft)
16.07.2010 04:14 24,4 C 15,9 C 0,0 UV-I 0,0 C 45 % 71 % 0 % 1017,4 hPa 0,0 l/m 2,8 km/h (1 Bft) 0 min 5,1 km/h (1 Bft)
16.07.2010 04:16 24,4 C 15,9 C 0,0 UV-I 0,0 C 45 % 70 % 0 % 1017,4 hPa 0,0 l/m 3,6 km/h (1 Bft) 0 min 4,8 km/h (1 Bft)
16.07.2010 04:18 24,4 C 15,9 C 0,0 UV-I 0,0 C 45 % 71 % 0 % 1017,4 hPa 0,0 l/m 3,6 km/h (1 Bft) 0 min 6,1 km/h (2 Bft)
16.07.2010 04:20 24,4 C 15,9 C 0,0 UV-I 0,0 C 45 % 70 % 0 % 1017,4 hPa 0,0 l/m 3,6 km/h (1 Bft) 0 min 6,1 km/h (2 Bft)
16.07.2010 04:22 24,4 C 15,9 C 0,0 UV-I 0,0 C 45 % 71 % 0 % 1017,4 hPa 0,0 l/m 3,6 km/h (1 Bft) 0 min 8,0 km/h (2 Bft)
16.07.2010 04:24 24,4 C 15,8 C 0,0 UV-I 0,0 C 45 % 71 % 0 % 1017,4 hPa 0,0 l/m 3,6 km/h (1 Bft) 0 min 4,8 km/h (1 Bft)
16.07.2010 04:26 24,4 C 15,9 C 0,0 UV-I 0,0 C 45 % 71 % 0 % 1017,4 hPa 0,0 l/m 3,6 km/h (1 Bft) 0 min 6,8 km/h (2 Bft)
16.07.2010 04:30 24,4 C 15,8 C 0,0 UV-I 0,0 C 45 % 71 % 0 % 1017,1 hPa 0,0 l/m 3,2 km/h (1 Bft) 0 min 6,8 km/h (2 Bft)
16.07.2010 04:32 24,4 C 15,9 C 0,0 UV-I 0,0 C 45 % 71 % 0 % 1017,1 hPa 0,0 l/m 3,2 km/h (1 Bft) 0 min 4,5 km/h (1 Bft)
16.07.2010 04:34 24,4 C 15,9 C 0,0 UV-I 0,0 C 45 % 71 % 0 % 1017,1 hPa 0,0 l/m 2,4 km/h (1 Bft) 0 min 0,0 km/h (0 Bft)
16.07.2010 04:36 24,4 C 15,9 C 0,0 UV-I 0,0 C 45 % 71 % 0 % 1017,1 hPa 0,0 l/m 2,4 km/h (1 Bft) 0 min 3,5 km/h (1 Bft)
16.07.2010 04:38 24,4 C 15,8 C 0,0 UV-I 0,0 C 45 % 71 % 0 % 1017,1 hPa 0,0 l/m 1,6 km/h (1 Bft) 0 min 4,8 km/h (1 Bft)
16.07.2010 04:40 24,4 C 15,7 C 0,0 UV-I 0,0 C 45 % 71 % 0 % 1017,1 hPa 0,0 l/m 2,0 km/h (1 Bft) 0 min 4,8 km/h (1 Bft)
16.07.2010 04:42 24,4 C 15,7 C 0,0 UV-I 0,0 C 45 % 71 % 0 % 1017,1 hPa 0,0 l/m 3,2 km/h (1 Bft) 0 min 10,3 km/h (2 Bft)
16.07.2010 04:44 24,2 C 15,7 C 0,0 UV-I 0,0 C 45 % 71 % 0 % 1017,1 hPa 0,0 l/m 4,0 km/h (1 Bft) 0 min 10,3 km/h (2 Bft)
16.07.2010 04:48 24,2 C 15,7 C 0,0 UV-I 0,0 C 45 % 71 % 0 % 1017,1 hPa 0,0 l/m 4,8 km/h (1 Bft) 0 min 5,8 km/h (2 Bft)
16.07.2010 04:50 24,3 C 15,6 C 0,0 UV-I 0,0 C 45 % 71 % 0 % 1016,7 hPa 0,0 l/m 4,8 km/h (1 Bft) 0 min 5,1 km/h (1 Bft)
16.07.2010 04:54 24,3 C 15,6 C 0,0 UV-I 0,0 C 45 % 71 % 0 % 1016,7 hPa 0,0 l/m 3,6 km/h (1 Bft) 0 min 3,9 km/h (1 Bft)
16.07.2010 04:56 24,3 C 15,6 C 0,0 UV-I 0,0 C 45 % 71 % 0 % 1016,7 hPa 0,0 l/m 2,8 km/h (1 Bft) 0 min 3,9 km/h (1 Bft)
16.07.2010 04:58 24,3 C 15,7 C 0,0 UV-I 0,0 C 45 % 71 % 0 % 1016,7 hPa 0,0 l/m 2,8 km/h (1 Bft) 0 min 8,0 km/h (2 Bft)
16.07.2010 05:00 24,2 C 15,7 C 0,0 UV-I 0,0 C 45 % 72 % 0 % 1016,7 hPa 0,0 l/m 3,2 km/h (1 Bft) 0 min 8,0 km/h (2 Bft)
16.07.2010 05:02 24,2 C 15,7 C 0,0 UV-I 0,0 C 45 % 72 % 0 % 1016,7 hPa 0,0 l/m 4,0 km/h (1 Bft) 0 min 6,8 km/h (2 Bft)
16.07.2010 05:04 24,2 C 15,6 C 0,0 UV-I 0,0 C 45 % 72 % 0 % 1016,7 hPa 0,0 l/m 4,0 km/h (1 Bft) 0 min 6,1 km/h (2 Bft)
16.07.2010 05:06 24,2 C 15,6 C 0,0 UV-I 0,0 C 45 % 72 % 0 % 1016,7 hPa 0,0 l/m 3,6 km/h (1 Bft) 0 min 3,2 km/h (1 Bft)
16.07.2010 05:10 24,2 C 15,5 C 0,0 UV-I 0,0 C 45 % 72 % 0 % 1016,8 hPa 0,0 l/m 3,2 km/h (1 Bft) 0 min 6,1 km/h (2 Bft)
16.07.2010 05:12 24,2 C 15,5 C 0,0 UV-I 0,0 C 45 % 72 % 0 % 1016,8 hPa 0,0 l/m 3,2 km/h (1 Bft) 0 min 6,4 km/h (2 Bft)
16.07.2010 05:14 24,2 C 15,5 C 0,0 UV-I 0,0 C 46 % 72 % 0 % 1016,8 hPa 0,0 l/m 3,2 km/h (1 Bft) 0 min 8,4 km/h (2 Bft)
16.07.2010 05:16 24,2 C 15,5 C 0,0 UV-I 0,0 C 45 % 72 % 0 % 1016,8 hPa 0,0 l/m 3,6 km/h (1 Bft) 0 min 8,4 km/h (2 Bft)
16.07.2010 05:18 24,2 C 15,5 C 0,0 UV-I 0,0 C 46 % 72 % 0 % 1016,8 hPa 0,0 l/m 3,6 km/h (1 Bft) 0 min 7,4 km/h (2 Bft)
16.07.2010 05:20 24,2 C 15,5 C 0,0 UV-I 0,0 C 45 % 72 % 0 % 1016,8 hPa 0,0 l/m 3,2 km/h (1 Bft) 0 min 3,9 km/h (1 Bft)
16.07.2010 05:22 24,2 C 15,5 C 0,0 UV-I 0,0 C 46 % 72 % 0 % 1016,8 hPa 0,0 l/m 3,2 km/h (1 Bft) 0 min 3,9 km/h (1 Bft)
16.07.2010 05:24 24,2 C 15,5 C 0,0 UV-I 0,0 C 46 % 72 % 0 % 1016,8 hPa 0,0 l/m 3,2 km/h (1 Bft) 0 min 6,8 km/h (2 Bft)
16.07.2010 05:26 24,2 C 15,4 C 0,0 UV-I 0,0 C 46 % 72 % 0 % 1016,8 hPa 0,0 l/m 2,8 km/h (1 Bft) 0 min 7,1 km/h (2 Bft)
16.07.2010 05:28 24,2 C 15,4 C 0,0 UV-I 0,0 C 46 % 72 % 0 % 1016,8 hPa 0,0 l/m 2,4 km/h (1 Bft) 0 min 7,1 km/h (2 Bft)
16.07.2010 05:32 24,1 C 15,3 C 0,0 UV-I 0,0 C 46 % 73 % 0 % 1016,9 hPa 0,0 l/m 2,8 km/h (1 Bft) 0 min 6,4 km/h (2 Bft)
16.07.2010 05:34 24,1 C 15,3 C 0,0 UV-I 0,0 C 46 % 73 % 0 % 1016,9 hPa 0,0 l/m 3,2 km/h (1 Bft) 0 min 7,7 km/h (2 Bft)
16.07.2010 05:36 24,1 C 15,2 C 0,0 UV-I 0,0 C 46 % 73 % 0 % 1016,9 hPa 0,0 l/m 2,8 km/h (1 Bft) 0 min 0,0 km/h (0 Bft)
16.07.2010 05:38 24,1 C 15,2 C 0,0 UV-I 0,0 C 46 % 73 % 0 % 1016,9 hPa 0,0 l/m 2,8 km/h (1 Bft) 0 min 5,5 km/h (1 Bft)
16.07.2010 05:40 24,1 C 15,2 C 0,0 UV-I 0,0 C 46 % 73 % 0 % 1016,9 hPa 0,0 l/m 3,2 km/h (1 Bft) 0 min 5,5 km/h (1 Bft)
16.07.2010 05:42 24,1 C 15,2 C 0,0 UV-I 0,0 C 46 % 73 % 0 % 1016,9 hPa 0,0 l/m 3,2 km/h (1 Bft) 0 min 7,7 km/h (2 Bft)
16.07.2010 05:44 24,1 C 15,3 C 0,0 UV-I 0,0 C 46 % 73 % 0 % 1016,9 hPa 0,0 l/m 3,2 km/h (1 Bft) 0 min 7,7 km/h (2 Bft)
16.07.2010 05:46 24,1 C 15,2 C 0,0 UV-I 0,0 C 46 % 73 % 0 % 1016,9 hPa 0,0 l/m 2,8 km/h (1 Bft) 0 min 4,5 km/h (1 Bft)
16.07.2010 05:48 24,0 C 15,2 C 0,0 UV-I 0,0 C 46 % 73 % 0 % 1016,8 hPa 0,0 l/m 2,8 km/h (1 Bft) 0 min 3,9 km/h (1 Bft)
16.07.2010 05:50 24,0 C 15,2 C 0,0 UV-I 0,0 C 46 % 73 % 0 % 1016,8 hPa 0,0 l/m 2,8 km/h (1 Bft) 0 min 3,9 km/h (1 Bft)
16.07.2010 05:52 24,0 C 15,3 C 0,0 UV-I 0,0 C 46 % 73 % 0 % 1016,8 hPa 0,0 l/m 2,0 km/h (1 Bft) 0 min 0,0 km/h (0 Bft)
16.07.2010 05:54 24,0 C 15,3 C 0,0 UV-I 0,0 C 46 % 73 % 0 % 1016,8 hPa 0,0 l/m 2,0 km/h (1 Bft) 0 min 3,9 km/h (1 Bft)
16.07.2010 05:56 24,0 C 15,2 C 0,0 UV-I 0,0 C 46 % 73 % 0 % 1016,8 hPa 0,0 l/m 1,6 km/h (1 Bft) 0 min 4,2 km/h (1 Bft)
16.07.2010 06:00 24,0 C 15,2 C 0,0 UV-I 0,0 C 46 % 73 % 0 % 1016,8 hPa 0,0 l/m 2,0 km/h (1 Bft) 0 min 6,8 km/h (2 Bft)
16.07.2010 06:02 24,0 C 15,3 C 0,0 UV-I 0,0 C 46 % 73 % 0 % 1016,8 hPa 0,0 l/m 2,4 km/h (1 Bft) 0 min 7,4 km/h (2 Bft)
16.07.2010 06:06 24,0 C 15,2 C 0,0 UV-I 0,0 C 46 % 73 % 0 % 1016,8 hPa 0,0 l/m 3,6 km/h (1 Bft) 0 min 7,4 km/h (2 Bft)
16.07.2010 06:08 24,0 C 15,2 C 0,0 UV-I 0,0 C 46 % 73 % 0 % 1016,8 hPa 0,0 l/m 4,0 km/h (1 Bft) 0 min 5,5 km/h (1 Bft)
16.07.2010 06:10 24,0 C 15,3 C 0,0 UV-I 0,0 C 46 % 73 % 0 % 1016,8 hPa 0,0 l/m 3,6 km/h (1 Bft) 0 min 5,1 km/h (1 Bft)
16.07.2010 06:12 24,0 C 15,3 C 0,0 UV-I 0,0 C 46 % 73 % 0 % 1016,8 hPa 0,0 l/m 2,8 km/h (1 Bft) 0 min 5,1 km/h (1 Bft)
16.07.2010 06:14 24,0 C 15,2 C 0,0 UV-I 0,0 C 46 % 73 % 0 % 1016,8 hPa 0,0 l/m 2,8 km/h (1 Bft) 0 min 6,8 km/h (2 Bft)
16.07.2010 06:16 24,0 C 15,2 C 0,0 UV-I 0,0 C 46 % 73 % 0 % 1016,8 hPa 0,0 l/m 2,8 km/h (1 Bft) 0 min 0,0 km/h (0 Bft)
16.07.2010 06:18 24,0 C 15,3 C 0,0 UV-I 0,0 C 46 % 73 % 0 % 1016,8 hPa 0,0 l/m 2,8 km/h (1 Bft) 0 min 4,8 km/h (1 Bft)
16.07.2010 06:20 24,0 C 15,3 C 0,0 UV-I 0,0 C 46 % 73 % 0 % 1016,8 hPa 0,0 l/m 2,8 km/h (1 Bft) 0 min 5,1 km/h (1 Bft)
16.07.2010 06:22 24,0 C 15,3 C 0,0 UV-I 0,0 C 46 % 73 % 0 % 1016,8 hPa 0,0 l/m 3,6 km/h (1 Bft) 0 min 7,7 km/h (2 Bft)
16.07.2010 06:28 24,0 C 15,4 C 0,0 UV-I 0,0 C 46 % 73 % 0 % 1017,0 hPa 0,0 l/m 4,0 km/h (1 Bft) 0 min 7,7 km/h (2 Bft)
16.07.2010 06:30 23,9 C 15,5 C 0,0 UV-I 0,0 C 46 % 72 % 0 % 1017,0 hPa 0,0 l/m 3,6 km/h (1 Bft) 0 min 3,9 km/h (1 Bft)
16.07.2010 06:32 23,9 C 15,6 C 0,0 UV-I 0,0 C 46 % 72 % 0 % 1017,0 hPa 0,0 l/m 3,6 km/h (1 Bft) 0 min 8,7 km/h (2 Bft)
16.07.2010 06:36 24,0 C 15,6 C 0,0 UV-I 0,0 C 46 % 72 % 0 % 1017,0 hPa 0,0 l/m 3,6 km/h (1 Bft) 0 min 4,2 km/h (1 Bft)
16.07.2010 06:38 23,9 C 15,6 C 0,0 UV-I 0,0 C 46 % 72 % 0 % 1017,0 hPa 0,0 l/m 4,0 km/h (1 Bft) 0 min 8,7 km/h (2 Bft)
16.07.2010 06:42 24,0 C 15,7 C 0,0 UV-I 0,0 C 46 % 72 % 0 % 1017,0 hPa 0,0 l/m 4,0 km/h (1 Bft) 0 min 5,5 km/h (1 Bft)
16.07.2010 06:44 24,0 C 15,8 C 0,0 UV-I 0,0 C 46 % 72 % 0 % 1017,0 hPa 0,0 l/m 4,0 km/h (1 Bft) 0 min 5,8 km/h (2 Bft)
16.07.2010 06:46 24,0 C 15,9 C 0,1 UV-I 0,0 C 46 % 72 % 0 % 1017,0 hPa 0,0 l/m 4,0 km/h (1 Bft) 0 min 6,1 km/h (2 Bft)
16.07.2010 06:48 24,0 C 15,9 C 0,1 UV-I 0,0 C 46 % 72 % 0 % 1017,0 hPa 0,0 l/m 4,4 km/h (1 Bft) 0 min 8,4 km/h (2 Bft)
16.07.2010 06:50 24,0 C 15,9 C 0,1 UV-I 0,0 C 46 % 72 % 0 % 1016,9 hPa 0,0 l/m 4,4 km/h (1 Bft) 0 min 8,4 km/h (2 Bft)
16.07.2010 06:52 24,0 C 15,9 C 0,4 UV-I 0,0 C 46 % 72 % 0 % 1016,9 hPa 0,0 l/m 4,4 km/h (1 Bft) 0 min 5,8 km/h (2 Bft)
16.07.2010 06:54 24,0 C 15,9 C 0,4 UV-I 0,0 C 46 % 72 % 0 % 1016,9 hPa 0,0 l/m 5,2 km/h (1 Bft) 0 min 8,7 km/h (2 Bft)
16.07.2010 06:56 24,0 C 16,0 C 0,3 UV-I 0,0 C 46 % 72 % 0 % 1016,9 hPa 0,0 l/m 5,2 km/h (1 Bft) 0 min 8,7 km/h (2 Bft)
16.07.2010 06:58 24,0 C 16,0 C 0,3 UV-I 0,0 C 46 % 72 % 0 % 1016,9 hPa 0,0 l/m 5,6 km/h (1 Bft) 0 min 7,7 km/h (2 Bft)
16.07.2010 07:00 24,0 C 16,0 C 0,3 UV-I 0,0 C 46 % 71 % 0 % 1016,9 hPa 0,0 l/m 5,2 km/h (1 Bft) 0 min 11,9 km/h (2 Bft)
16.07.2010 07:02 24,0 C 16,1 C 0,1 UV-I 0,0 C 46 % 71 % 0 % 1016,9 hPa 0,0 l/m 5,2 km/h (1 Bft) 0 min 5,8 km/h (2 Bft)
16.07.2010 07:04 24,0 C 16,1 C 0,1 UV-I 0,0 C 46 % 72 % 0 % 1016,9 hPa 0,0 l/m 4,4 km/h (1 Bft) 0 min 5,8 km/h (2 Bft)
16.07.2010 07:06 24,0 C 16,1 C 0,2 UV-I 0,0 C 46 % 71 % 0 % 1016,9 hPa 0,0 l/m 3,6 km/h (1 Bft) 0 min 0,0 km/h (0 Bft)
16.07.2010 07:08 24,0 C 16,1 C 0,2 UV-I 0,0 C 47 % 71 % 0 % 1016,8 hPa 0,0 l/m 2,8 km/h (1 Bft) 0 min 0,0 km/h (0 Bft)
16.07.2010 07:10 23,9 C 16,3 C 0,2 UV-I 0,0 C 46 % 71 % 0 % 1016,8 hPa 0,0 l/m 2,8 km/h (1 Bft) 0 min 5,1 km/h (1 Bft)
16.07.2010 07:12 24,0 C 16,3 C 1,5 UV-I 0,0 C 47 % 71 % 0 % 1016,8 hPa 0,0 l/m 2,8 km/h (1 Bft) 0 min 5,1 km/h (1 Bft)
16.07.2010 07:14 24,0 C 16,3 C 1,5 UV-I 0,0 C 47 % 71 % 0 % 1016,8 hPa 0,0 l/m 3,2 km/h (1 Bft) 0 min 5,1 km/h (1 Bft)
16.07.2010 07:16 23,9 C 16,4 C 1,4 UV-I 0,0 C 47 % 71 % 0 % 1016,8 hPa 0,0 l/m 3,6 km/h (1 Bft) 0 min 5,1 km/h (1 Bft)
16.07.2010 07:18 24,0 C 16,4 C 1,4 UV-I 0,0 C 47 % 71 % 0 % 1016,8 hPa 0,0 l/m 4,0 km/h (1 Bft) 0 min 5,1 km/h (1 Bft)
16.07.2010 07:20 24,0 C 16,5 C 1,4 UV-I 0,0 C 47 % 71 % 0 % 1016,8 hPa 0,0 l/m 4,8 km/h (1 Bft) 0 min 12,6 km/h (3 Bft)
16.07.2010 07:22 23,9 C 16,7 C 1,6 UV-I 0,0 C 47 % 71 % 0 % 1016,8 hPa 0,0 l/m 4,8 km/h (1 Bft) 0 min 6,8 km/h (2 Bft)
16.07.2010 07:24 24,0 C 16,6 C 1,6 UV-I 0,0 C 47 % 71 % 0 % 1016,8 hPa 0,0 l/m 4,0 km/h (1 Bft) 0 min 4,8 km/h (1 Bft)
16.07.2010 07:26 24,0 C 16,7 C 1,8 UV-I 0,0 C 47 % 71 % 0 % 1016,8 hPa 0,0 l/m 4,4 km/h (1 Bft) 0 min 3,9 km/h (1 Bft)
16.07.2010 07:28 24,0 C 16,7 C 1,8 UV-I 0,0 C 47 % 71 % 0 % 1016,5 hPa 0,0 l/m 4,4 km/h (1 Bft) 0 min 4,2 km/h (1 Bft)
16.07.2010 07:30 24,0 C 16,9 C 1,8 UV-I 0,0 C 47 % 70 % 0 % 1016,5 hPa 0,0 l/m 4,8 km/h (1 Bft) 0 min 5,5 km/h (1 Bft)
16.07.2010 07:32 24,0 C 17,0 C 2,0 UV-I 0,0 C 47 % 70 % 0 % 1016,5 hPa 0,0 l/m 4,4 km/h (1 Bft) 0 min 5,5 km/h (1 Bft)
16.07.2010 07:34 24,0 C 17,1 C 2,0 UV-I 0,0 C 47 % 69 % 0 % 1016,5 hPa 0,0 l/m 4,8 km/h (1 Bft) 0 min 7,1 km/h (2 Bft)
16.07.2010 07:36 24,0 C 17,2 C 1,9 UV-I 0,0 C 47 % 69 % 0 % 1016,5 hPa 0,0 l/m 5,2 km/h (1 Bft) 0 min 10,9 km/h (2 Bft)
16.07.2010 07:38 24,0 C 17,2 C 1,9 UV-I 0,0 C 47 % 69 % 0 % 1016,5 hPa 0,0 l/m 6,0 km/h (2 Bft) 0 min 10,9 km/h (2 Bft)
16.07.2010 07:40 24,0 C 17,5 C 1,9 UV-I 0,0 C 47 % 68 % 0 % 1016,5 hPa 0,0 l/m 6,8 km/h (2 Bft) 0 min 10,6 km/h (2 Bft)
16.07.2010 07:42 24,0 C 17,5 C 2,1 UV-I 0,0 C 47 % 68 % 0 % 1016,5 hPa 0,0 l/m 7,2 km/h (2 Bft) 0 min 10,6 km/h (2 Bft)
16.07.2010 07:44 24,0 C 17,7 C 2,1 UV-I 0,0 C 47 % 67 % 0 % 1016,5 hPa 0,0 l/m 7,6 km/h (2 Bft) 0 min 12,2 km/h (2 Bft)
16.07.2010 07:46 24,0 C 17,6 C 2,3 UV-I 0,0 C 47 % 67 % 0 % 1016,5 hPa 0,0 l/m 8,0 km/h (2 Bft) 0 min 12,2 km/h (2 Bft)
16.07.2010 07:48 24,0 C 17,6 C 2,3 UV-I 0,1 C 47 % 67 % 3 % 1016,8 hPa 0,0 l/m 6,8 km/h (2 Bft) 0 min 11,9 km/h (2 Bft)
16.07.2010 07:50 24,0 C 17,8 C 2,3 UV-I 0,0 C 47 % 66 % 0 % 1016,8 hPa 0,0 l/m 6,4 km/h (2 Bft) 0 min 13,8 km/h (3 Bft)
16.07.2010 07:52 24,0 C 18,0 C 2,4 UV-I 0,0 C 47 % 66 % 0 % 1016,8 hPa 0,0 l/m 6,4 km/h (2 Bft) 0 min 12,2 km/h (2 Bft)
16.07.2010 07:54 24,0 C 18,1 C 2,4 UV-I 0,0 C 47 % 66 % 0 % 1016,8 hPa 0,0 l/m 7,2 km/h (2 Bft) 0 min 12,2 km/h (2 Bft)
16.07.2010 07:56 24,0 C 18,3 C 2,5 UV-I 0,0 C 47 % 66 % 0 % 1016,8 hPa 0,0 l/m 6,8 km/h (2 Bft) 0 min 9,7 km/h (2 Bft)
16.07.2010 07:58 24,0 C 18,3 C 2,5 UV-I 0,0 C 47 % 65 % 0 % 1016,8 hPa 0,0 l/m 7,6 km/h (2 Bft) 0 min 9,7 km/h (2 Bft)
16.07.2010 08:00 24,0 C 18,4 C 2,5 UV-I 0,1 C 47 % 65 % 3 % 1016,8 hPa 0,0 l/m 8,0 km/h (2 Bft) 0 min 20,0 km/h (4 Bft)
16.07.2010 08:02 23,9 C 18,5 C 2,6 UV-I 0,0 C 47 % 64 % 0 % 1016,8 hPa 0,0 l/m 8,0 km/h (2 Bft) 0 min 9,0 km/h (2 Bft)
16.07.2010 08:04 23,9 C 18,7 C 2,6 UV-I 0,0 C 47 % 63 % 0 % 1016,8 hPa 0,0 l/m 7,2 km/h (2 Bft) 0 min 6,4 km/h (2 Bft)
16.07.2010 08:06 23,9 C 18,7 C 2,4 UV-I 0,0 C 47 % 63 % 0 % 1016,8 hPa 0,0 l/m 7,2 km/h (2 Bft) 0 min 6,4 km/h (2 Bft)
16.07.2010 08:08 23,9 C 18,7 C 2,4 UV-I 0,1 C 47 % 63 % 3 % 1016,8 hPa 0,0 l/m 7,6 km/h (2 Bft) 0 min 10,3 km/h (2 Bft)
16.07.2010 08:10 23,9 C 18,8 C 2,4 UV-I 0,1 C 47 % 63 % 3 % 1016,8 hPa 0,0 l/m 8,0 km/h (2 Bft) 0 min 10,3 km/h (2 Bft)
16.07.2010 08:12 23,9 C 19,0 C 2,7 UV-I 0,0 C 47 % 62 % 0 % 1016,8 hPa 0,0 l/m 8,4 km/h (2 Bft) 0 min 10,0 km/h (2 Bft)
16.07.2010 08:14 23,9 C 19,1 C 2,7 UV-I 0,0 C 47 % 62 % 0 % 1016,8 hPa 0,0 l/m 8,8 km/h (2 Bft) 0 min 9,7 km/h (2 Bft)
16.07.2010 08:16 23,9 C 19,2 C 2,7 UV-I 0,0 C 47 % 62 % 0 % 1016,8 hPa 0,0 l/m 9,6 km/h (2 Bft) 0 min 9,7 km/h (2 Bft)
16.07.2010 08:18 23,9 C 19,3 C 2,7 UV-I 0,2 C 47 % 61 % 6 % 1016,8 hPa 0,0 l/m 9,2 km/h (2 Bft) 0 min 8,0 km/h (2 Bft)
16.07.2010 08:20 23,8 C 19,5 C 2,7 UV-I 1,1 C 47 % 62 % 31 % 1016,8 hPa 0,0 l/m 8,4 km/h (2 Bft) 0 min 21,9 km/h (4 Bft)
16.07.2010 08:22 23,8 C 19,5 C 2,4 UV-I 2,3 C 47 % 61 % 66 % 1016,8 hPa 0,0 l/m 8,0 km/h (2 Bft) 0 min 14,5 km/h (3 Bft)
16.07.2010 08:24 23,9 C 19,7 C 2,4 UV-I 2,8 C 47 % 60 % 80 % 1016,8 hPa 0,0 l/m 8,0 km/h (2 Bft) 0 min 14,5 km/h (3 Bft)
16.07.2010 08:26 23,9 C 19,7 C 2,7 UV-I 3,6 C 47 % 61 % 100 % 1016,8 hPa 0,0 l/m 7,2 km/h (2 Bft) 2 min 10,3 km/h (2 Bft)
16.07.2010 08:28 23,9 C 19,7 C 2,7 UV-I 4,0 C 47 % 61 % 100 % 1016,9 hPa 0,0 l/m 6,8 km/h (2 Bft) 2 min 8,7 km/h (2 Bft)
16.07.2010 08:30 23,8 C 20,0 C 2,7 UV-I 4,2 C 47 % 60 % 100 % 1016,9 hPa 0,0 l/m 7,6 km/h (2 Bft) 2 min 24,1 km/h (4 Bft)
16.07.2010 08:32 23,9 C 20,1 C 2,8 UV-I 4,6 C 47 % 60 % 100 % 1016,9 hPa 0,0 l/m 7,2 km/h (2 Bft) 2 min 7,7 km/h (2 Bft)
16.07.2010 08:34 23,9 C 20,2 C 2,8 UV-I 4,9 C 47 % 60 % 100 % 1016,9 hPa 0,0 l/m 6,8 km/h (2 Bft) 2 min 7,7 km/h (2 Bft)
16.07.2010 08:36 23,9 C 20,3 C 2,9 UV-I 5,1 C 47 % 59 % 100 % 1016,9 hPa 0,0 l/m 6,8 km/h (2 Bft) 2 min 8,4 km/h (2 Bft)
16.07.2010 08:38 23,9 C 20,4 C 2,9 UV-I 5,1 C 47 % 59 % 100 % 1016,9 hPa 0,0 l/m 8,0 km/h (2 Bft) 2 min 8,4 km/h (2 Bft)
16.07.2010 08:40 23,9 C 20,5 C 2,9 UV-I 5,0 C 47 % 58 % 100 % 1016,9 hPa 0,0 l/m 7,6 km/h (2 Bft) 2 min 14,8 km/h (3 Bft)
16.07.2010 08:42 23,9 C 20,7 C 2,9 UV-I 4,9 C 47 % 58 % 100 % 1016,9 hPa 0,0 l/m 9,2 km/h (2 Bft) 2 min 14,8 km/h (3 Bft)
16.07.2010 08:44 24,0 C 20,7 C 2,9 UV-I 5,1 C 47 % 57 % 100 % 1016,9 hPa 0,0 l/m 9,6 km/h (2 Bft) 2 min 18,7 km/h (3 Bft)
16.07.2010 08:46 24,0 C 20,8 C 5,1 UV-I 5,1 C 47 % 57 % 100 % 1016,9 hPa 0,0 l/m 10,0 km/h (2 Bft) 2 min 18,7 km/h (3 Bft)
16.07.2010 08:48 24,0 C 20,8 C 5,1 UV-I 5,3 C 47 % 57 % 100 % 1017,1 hPa 0,0 l/m 8,4 km/h (2 Bft) 2 min 8,7 km/h (2 Bft)
16.07.2010 08:50 24,0 C 21,1 C 5,1 UV-I 5,3 C 47 % 57 % 100 % 1017,1 hPa 0,0 l/m 8,4 km/h (2 Bft) 2 min 12,2 km/h (2 Bft)
16.07.2010 08:52 24,0 C 21,3 C 5,7 UV-I 5,1 C 47 % 56 % 100 % 1017,1 hPa 0,0 l/m 8,4 km/h (2 Bft) 2 min 12,2 km/h (2 Bft)
16.07.2010 08:54 24,0 C 21,3 C 5,7 UV-I 5,3 C 47 % 56 % 100 % 1017,1 hPa 0,0 l/m 8,4 km/h (2 Bft) 2 min 10,3 km/h (2 Bft)
16.07.2010 08:56 24,0 C 21,4 C 6,1 UV-I 5,2 C 47 % 56 % 100 % 1017,1 hPa 0,0 l/m 7,2 km/h (2 Bft) 2 min 10,3 km/h (2 Bft)
16.07.2010 08:58 24,0 C 21,5 C 6,1 UV-I 5,3 C 47 % 56 % 100 % 1017,1 hPa 0,0 l/m 8,4 km/h (2 Bft) 2 min 10,3 km/h (2 Bft)
16.07.2010 09:00 24,0 C 21,7 C 6,1 UV-I 5,1 C 47 % 55 % 100 % 1017,1 hPa 0,0 l/m 8,4 km/h (2 Bft) 2 min 10,3 km/h (2 Bft)
16.07.2010 09:02 24,0 C 21,7 C 6,9 UV-I 5,3 C 47 % 55 % 100 % 1017,1 hPa 0,0 l/m 7,6 km/h (2 Bft) 2 min 11,3 km/h (2 Bft)
16.07.2010 09:04 24,0 C 21,9 C 6,9 UV-I 5,3 C 47 % 55 % 100 % 1017,1 hPa 0,0 l/m 7,2 km/h (2 Bft) 2 min 11,3 km/h (2 Bft)
16.07.2010 09:06 24,0 C 22,0 C 7,7 UV-I 5,5 C 47 % 55 % 100 % 1017,1 hPa 0,0 l/m 7,2 km/h (2 Bft) 2 min 6,8 km/h (2 Bft)
16.07.2010 09:08 24,0 C 22,0 C 7,7 UV-I 5,7 C 47 % 55 % 100 % 1017,1 hPa 0,0 l/m 6,8 km/h (2 Bft) 2 min 13,8 km/h (3 Bft)
16.07.2010 09:10 24,0 C 22,3 C 7,7 UV-I 5,5 C 47 % 54 % 100 % 1017,1 hPa 0,0 l/m 5,6 km/h (1 Bft) 2 min 13,8 km/h (3 Bft)
16.07.2010 09:12 24,0 C 22,5 C 8,0 UV-I 5,6 C 47 % 54 % 100 % 1017,1 hPa 0,0 l/m 6,4 km/h (2 Bft) 2 min 15,4 km/h (3 Bft)
16.07.2010 09:14 24,0 C 22,6 C 8,0 UV-I 5,5 C 47 % 53 % 100 % 1017,1 hPa 0,0 l/m 6,8 km/h (2 Bft) 2 min 15,4 km/h (3 Bft)
16.07.2010 09:16 24,0 C 22,7 C 9,1 UV-I 5,5 C 47 % 53 % 100 % 1017,1 hPa 0,0 l/m 7,2 km/h (2 Bft) 2 min 8,4 km/h (2 Bft)
16.07.2010 09:18 24,1 C 22,8 C 9,1 UV-I 5,7 C 47 % 52 % 100 % 1017,1 hPa 0,0 l/m 6,8 km/h (2 Bft) 2 min 6,8 km/h (2 Bft)
16.07.2010 09:20 24,1 C 23,1 C 9,1 UV-I 5,6 C 47 % 51 % 100 % 1017,1 hPa 0,0 l/m 6,8 km/h (2 Bft) 2 min 7,1 km/h (2 Bft)
16.07.2010 09:22 24,1 C 23,1 C 10,1 UV-I 5,7 C 47 % 51 % 100 % 1017,1 hPa 0,0 l/m 8,0 km/h (2 Bft) 2 min 9,0 km/h (2 Bft)
16.07.2010 09:24 24,1 C 23,2 C 10,1 UV-I 5,5 C 47 % 51 % 100 % 1017,1 hPa 0,0 l/m 8,0 km/h (2 Bft) 2 min 10,9 km/h (2 Bft)
16.07.2010 09:26 24,1 C 23,2 C 11,1 UV-I 5,5 C 47 % 51 % 100 % 1017,1 hPa 0,0 l/m 8,0 km/h (2 Bft) 2 min 10,9 km/h (2 Bft)
16.07.2010 09:28 24,1 C 23,2 C 11,1 UV-I 5,4 C 47 % 51 % 100 % 1016,8 hPa 0,0 l/m 9,2 km/h (2 Bft) 2 min 13,5 km/h (3 Bft)
16.07.2010 09:30 24,1 C 23,5 C 11,1 UV-I 5,1 C 47 % 51 % 100 % 1016,8 hPa 0,0 l/m 10,0 km/h (2 Bft) 2 min 13,5 km/h (3 Bft)
16.07.2010 09:32 24,1 C 23,4 C 12,7 UV-I 5,1 C 47 % 50 % 100 % 1016,8 hPa 0,0 l/m 11,2 km/h (2 Bft) 2 min 21,9 km/h (4 Bft)
16.07.2010 09:34 24,2 C 23,5 C 12,7 UV-I 4,9 C 47 % 49 % 100 % 1016,8 hPa 0,0 l/m 11,2 km/h (2 Bft) 2 min 21,9 km/h (4 Bft)
16.07.2010 09:36 24,2 C 23,5 C 14,3 UV-I 4,9 C 47 % 49 % 100 % 1016,8 hPa 0,0 l/m 10,8 km/h (2 Bft) 2 min 8,7 km/h (2 Bft)
16.07.2010 09:38 24,2 C 23,5 C 14,3 UV-I 5,0 C 47 % 49 % 100 % 1016,8 hPa 0,0 l/m 11,6 km/h (2 Bft) 2 min 16,7 km/h (3 Bft)
16.07.2010 09:40 24,2 C 23,7 C 14,3 UV-I 4,8 C 47 % 49 % 100 % 1016,8 hPa 0,0 l/m 12,4 km/h (3 Bft) 2 min 17,1 km/h (3 Bft)
16.07.2010 09:42 24,2 C 23,6 C 15,2 UV-I 4,7 C 47 % 48 % 100 % 1016,8 hPa 0,0 l/m 12,0 km/h (2 Bft) 2 min 17,1 km/h (3 Bft)
16.07.2010 09:44 24,2 C 23,7 C 15,2 UV-I 4,8 C 47 % 49 % 100 % 1016,8 hPa 0,0 l/m 10,8 km/h (2 Bft) 2 min 15,8 km/h (3 Bft)
16.07.2010 09:46 24,2 C 23,9 C 16,1 UV-I 4,7 C 47 % 48 % 100 % 1016,8 hPa 0,0 l/m 11,2 km/h (2 Bft) 2 min 15,8 km/h (3 Bft)
16.07.2010 09:50 24,2 C 24,0 C 16,1 UV-I 4,8 C 47 % 48 % 100 % 1016,9 hPa 0,0 l/m 10,0 km/h (2 Bft) 2 min 10,3 km/h (2 Bft)
16.07.2010 09:52 24,2 C 24,1 C 16,6 UV-I 4,9 C 47 % 47 % 100 % 1016,9 hPa 0,0 l/m 9,6 km/h (2 Bft) 2 min 20,0 km/h (4 Bft)
16.07.2010 09:54 24,2 C 24,1 C 16,6 UV-I 4,9 C 47 % 46 % 100 % 1016,9 hPa 0,0 l/m 10,0 km/h (2 Bft) 2 min 20,0 km/h (4 Bft)
16.07.2010 09:56 24,2 C 24,3 C 17,2 UV-I 4,7 C 47 % 47 % 100 % 1016,9 hPa 0,0 l/m 9,6 km/h (2 Bft) 2 min 6,8 km/h (2 Bft)
16.07.2010 09:58 24,2 C 24,3 C 17,2 UV-I 5,0 C 47 % 46 % 100 % 1016,9 hPa 0,0 l/m 9,6 km/h (2 Bft) 2 min 20,0 km/h (4 Bft)
16.07.2010 10:00 24,3 C 24,3 C 17,2 UV-I 4,9 C 47 % 46 % 100 % 1016,9 hPa 0,0 l/m 10,4 km/h (2 Bft) 2 min 20,0 km/h (4 Bft)
16.07.2010 10:02 24,3 C 24,3 C 17,4 UV-I 4,9 C 46 % 46 % 100 % 1016,9 hPa 0,0 l/m 10,0 km/h (2 Bft) 2 min 11,6 km/h (2 Bft)
16.07.2010 10:04 24,3 C 24,4 C 17,4 UV-I 5,0 C 46 % 46 % 100 % 1016,9 hPa 0,0 l/m 9,6 km/h (2 Bft) 2 min 11,6 km/h (2 Bft)
16.07.2010 10:06 24,3 C 24,4 C 13,3 UV-I 5,0 C 46 % 46 % 100 % 1016,9 hPa 0,0 l/m 9,6 km/h (2 Bft) 2 min 8,0 km/h (2 Bft)
16.07.2010 10:08 24,3 C 24,4 C 13,3 UV-I 5,1 C 46 % 46 % 100 % 1017,0 hPa 0,0 l/m 9,6 km/h (2 Bft) 2 min 5,5 km/h (1 Bft)
16.07.2010 10:10 24,3 C 24,7 C 13,3 UV-I 4,9 C 46 % 45 % 100 % 1017,0 hPa 0,0 l/m 9,6 km/h (2 Bft) 2 min 10,6 km/h (2 Bft)
16.07.2010 10:12 24,3 C 24,6 C 17,7 UV-I 5,0 C 46 % 45 % 100 % 1017,0 hPa 0,0 l/m 10,4 km/h (2 Bft) 2 min 19,0 km/h (3 Bft)
16.07.2010 10:14 24,2 C 24,7 C 17,7 UV-I 4,8 C 46 % 45 % 100 % 1017,0 hPa 0,0 l/m 10,8 km/h (2 Bft) 2 min 19,0 km/h (3 Bft)
16.07.2010 10:16 24,4 C 24,7 C 17,8 UV-I 4,8 C 46 % 45 % 100 % 1017,0 hPa 0,0 l/m 10,4 km/h (2 Bft) 2 min 12,6 km/h (3 Bft)
16.07.2010 10:18 24,2 C 24,8 C 17,8 UV-I 4,7 C 46 % 45 % 100 % 1017,0 hPa 0,0 l/m 11,2 km/h (2 Bft) 2 min 11,9 km/h (2 Bft)
16.07.2010 10:20 24,4 C 24,9 C 17,8 UV-I 4,7 C 46 % 45 % 100 % 1017,0 hPa 0,0 l/m 10,8 km/h (2 Bft) 2 min 11,9 km/h (2 Bft)
16.07.2010 10:22 24,4 C 24,9 C 17,7 UV-I 4,9 C 46 % 44 % 100 % 1017,0 hPa 0,0 l/m 9,6 km/h (2 Bft) 2 min 10,3 km/h (2 Bft)
16.07.2010 10:24 24,4 C 24,9 C 17,7 UV-I 5,0 C 46 % 44 % 100 % 1017,0 hPa 0,0 l/m 9,2 km/h (2 Bft) 2 min 11,6 km/h (2 Bft)
16.07.2010 10:26 24,4 C 24,9 C 17,6 UV-I 5,0 C 46 % 45 % 100 % 1017,0 hPa 0,0 l/m 9,2 km/h (2 Bft) 2 min 17,4 km/h (3 Bft)
16.07.2010 10:28 24,4 C 24,9 C 17,6 UV-I 5,0 C 46 % 45 % 100 % 1017,0 hPa 0,0 l/m 9,6 km/h (2 Bft) 2 min 17,4 km/h (3 Bft)
16.07.2010 10:30 24,4 C 25,1 C 17,6 UV-I 4,8 C 46 % 45 % 100 % 1017,0 hPa 0,0 l/m 10,0 km/h (2 Bft) 2 min 6,4 km/h (2 Bft)
16.07.2010 10:32 24,4 C 25,1 C 17,1 UV-I 4,9 C 46 % 45 % 100 % 1017,0 hPa 0,0 l/m 10,4 km/h (2 Bft) 2 min 24,5 km/h (4 Bft)
16.07.2010 10:34 24,4 C 25,2 C 17,1 UV-I 5,0 C 46 % 45 % 100 % 1017,0 hPa 0,0 l/m 10,4 km/h (2 Bft) 2 min 24,5 km/h (4 Bft)
16.07.2010 10:36 24,4 C 25,4 C 17,2 UV-I 4,9 C 46 % 45 % 100 % 1017,0 hPa 0,0 l/m 10,4 km/h (2 Bft) 2 min 18,3 km/h (3 Bft)
16.07.2010 10:38 24,4 C 25,4 C 17,2 UV-I 5,1 C 46 % 45 % 100 % 1017,0 hPa 0,0 l/m 9,6 km/h (2 Bft) 2 min 10,6 km/h (2 Bft)
16.07.2010 10:40 24,4 C 25,5 C 17,2 UV-I 5,1 C 46 % 46 % 100 % 1017,0 hPa 0,0 l/m 9,6 km/h (2 Bft) 2 min 24,5 km/h (4 Bft)
16.07.2010 10:42 24,4 C 25,6 C 17,0 UV-I 5,0 C 46 % 44 % 100 % 1017,0 hPa 0,0 l/m 9,6 km/h (2 Bft) 2 min 8,4 km/h (2 Bft)
16.07.2010 10:44 24,4 C 25,7 C 17,0 UV-I 5,1 C 46 % 45 % 100 % 1017,0 hPa 0,0 l/m 9,2 km/h (2 Bft) 2 min 5,5 km/h (1 Bft)
16.07.2010 10:46 24,5 C 25,7 C 16,8 UV-I 5,2 C 46 % 44 % 100 % 1017,0 hPa 0,0 l/m 8,8 km/h (2 Bft) 2 min 18,3 km/h (3 Bft)
16.07.2010 10:48 24,5 C 25,7 C 16,8 UV-I 5,1 C 46 % 44 % 100 % 1016,9 hPa 0,0 l/m 9,6 km/h (2 Bft) 2 min 18,3 km/h (3 Bft)
16.07.2010 10:50 24,5 C 25,8 C 16,8 UV-I 5,0 C 46 % 45 % 100 % 1016,9 hPa 0,0 l/m 9,2 km/h (2 Bft) 2 min 13,2 km/h (3 Bft)
16.07.2010 10:52 24,5 C 25,9 C 16,7 UV-I 4,9 C 46 % 44 % 100 % 1016,9 hPa 0,0 l/m 9,6 km/h (2 Bft) 2 min 9,7 km/h (2 Bft)
16.07.2010 10:54 24,5 C 26,0 C 16,7 UV-I 4,9 C 46 % 44 % 100 % 1016,9 hPa 0,0 l/m 9,6 km/h (2 Bft) 2 min 6,8 km/h (2 Bft)
16.07.2010 10:56 24,6 C 26,0 C 16,4 UV-I 5,1 C 46 % 43 % 100 % 1016,9 hPa 0,0 l/m 10,4 km/h (2 Bft) 2 min 12,2 km/h (2 Bft)
16.07.2010 10:58 24,6 C 26,0 C 16,4 UV-I 5,1 C 46 % 43 % 100 % 1016,9 hPa 0,0 l/m 9,6 km/h (2 Bft) 2 min 12,2 km/h (2 Bft)
16.07.2010 11:00 24,6 C 26,1 C 16,4 UV-I 5,2 C 46 % 44 % 100 % 1016,9 hPa 0,0 l/m 9,6 km/h (2 Bft) 2 min 17,7 km/h (3 Bft)
16.07.2010 11:02 24,6 C 26,1 C 16,0 UV-I 5,2 C 46 % 42 % 100 % 1016,9 hPa 0,0 l/m 10,0 km/h (2 Bft) 2 min 28,6 km/h (4 Bft)
16.07.2010 11:04 24,6 C 26,1 C 16,0 UV-I 5,0 C 46 % 42 % 100 % 1016,9 hPa 0,0 l/m 10,4 km/h (2 Bft) 2 min 15,1 km/h (3 Bft)
16.07.2010 11:06 24,6 C 26,2 C 15,6 UV-I 4,8 C 46 % 42 % 100 % 1016,9 hPa 0,0 l/m 11,2 km/h (2 Bft) 2 min 14,5 km/h (3 Bft)
16.07.2010 11:08 24,6 C 26,2 C 15,6 UV-I 4,8 C 46 % 42 % 100 % 1017,0 hPa 0,0 l/m 11,2 km/h (2 Bft) 2 min 14,5 km/h (3 Bft)
16.07.2010 11:10 24,6 C 26,2 C 15,6 UV-I 4,9 C 46 % 43 % 100 % 1017,0 hPa 0,0 l/m 11,6 km/h (2 Bft) 2 min 9,7 km/h (2 Bft)
16.07.2010 11:12 24,6 C 26,4 C 15,5 UV-I 4,9 C 46 % 43 % 100 % 1017,0 hPa 0,0 l/m 9,6 km/h (2 Bft) 2 min 6,4 km/h (2 Bft)
16.07.2010 11:14 24,7 C 26,4 C 15,5 UV-I 5,1 C 46 % 41 % 100 % 1017,0 hPa 0,0 l/m 9,2 km/h (2 Bft) 2 min 7,4 km/h (2 Bft)
16.07.2010 11:16 24,7 C 26,5 C 15,3 UV-I 5,1 C 46 % 40 % 100 % 1017,0 hPa 0,0 l/m 8,4 km/h (2 Bft) 2 min 15,4 km/h (3 Bft)
16.07.2010 11:18 24,7 C 26,4 C 15,3 UV-I 5,1 C 46 % 40 % 100 % 1017,0 hPa 0,0 l/m 8,8 km/h (2 Bft) 2 min 15,4 km/h (3 Bft)
16.07.2010 11:20 24,7 C 26,5 C 15,3 UV-I 4,8 C 46 % 40 % 100 % 1017,0 hPa 0,0 l/m 8,8 km/h (2 Bft) 2 min 12,6 km/h (3 Bft)
16.07.2010 11:22 24,7 C 26,3 C 15,1 UV-I 4,9 C 45 % 41 % 100 % 1017,0 hPa 0,0 l/m 9,6 km/h (2 Bft) 2 min 11,3 km/h (2 Bft)
16.07.2010 11:24 24,7 C 26,3 C 15,1 UV-I 4,8 C 45 % 40 % 100 % 1017,0 hPa 0,0 l/m 10,8 km/h (2 Bft) 2 min 16,1 km/h (3 Bft)
16.07.2010 11:26 24,8 C 26,3 C 14,7 UV-I 4,6 C 45 % 40 % 100 % 1017,0 hPa 0,0 l/m 11,2 km/h (2 Bft) 2 min 16,1 km/h (3 Bft)
16.07.2010 11:28 24,8 C 26,3 C 14,7 UV-I 4,6 C 45 % 40 % 100 % 1017,1 hPa 0,0 l/m 11,2 km/h (2 Bft) 2 min 13,5 km/h (3 Bft)
16.07.2010 11:30 24,8 C 26,4 C 14,7 UV-I 4,5 C 45 % 40 % 100 % 1017,1 hPa 0,0 l/m 11,2 km/h (2 Bft) 2 min 13,8 km/h (3 Bft)
16.07.2010 11:32 24,8 C 26,4 C 14,4 UV-I 4,5 C 45 % 40 % 100 % 1017,1 hPa 0,0 l/m 12,0 km/h (2 Bft) 2 min 13,8 km/h (3 Bft)
16.07.2010 11:34 24,8 C 26,4 C 14,4 UV-I 4,5 C 45 % 41 % 100 % 1017,1 hPa 0,0 l/m 11,2 km/h (2 Bft) 2 min 10,0 km/h (2 Bft)
16.07.2010 11:36 24,8 C 26,4 C 14,1 UV-I 4,6 C 45 % 41 % 100 % 1017,1 hPa 0,0 l/m 11,2 km/h (2 Bft) 2 min 16,4 km/h (3 Bft)
16.07.2010 11:38 24,8 C 26,5 C 14,1 UV-I 4,6 C 45 % 41 % 100 % 1017,1 hPa 0,0 l/m 10,4 km/h (2 Bft) 2 min 16,4 km/h (3 Bft)
16.07.2010 11:40 24,8 C 26,5 C 14,1 UV-I 4,7 C 45 % 40 % 100 % 1017,1 hPa 0,0 l/m 10,0 km/h (2 Bft) 2 min 10,3 km/h (2 Bft)
16.07.2010 11:42 24,8 C 26,7 C 13,4 UV-I 4,5 C 45 % 41 % 100 % 1017,1 hPa 0,0 l/m 8,8 km/h (2 Bft) 2 min 14,2 km/h (3 Bft)
16.07.2010 11:44 24,9 C 26,7 C 13,4 UV-I 4,5 C 45 % 40 % 100 % 1017,1 hPa 0,0 l/m 9,6 km/h (2 Bft) 2 min 14,2 km/h (3 Bft)
16.07.2010 11:46 24,9 C 26,7 C 12,9 UV-I 4,6 C 45 % 41 % 100 % 1017,1 hPa 0,0 l/m 9,6 km/h (2 Bft) 2 min 11,3 km/h (2 Bft)
16.07.2010 11:48 24,9 C 26,7 C 12,9 UV-I 4,8 C 45 % 41 % 100 % 1016,9 hPa 0,0 l/m 9,6 km/h (2 Bft) 2 min 11,3 km/h (2 Bft)
16.07.2010 11:50 24,9 C 26,9 C 12,9 UV-I 4,7 C 45 % 41 % 100 % 1016,9 hPa 0,0 l/m 9,2 km/h (2 Bft) 2 min 14,5 km/h (3 Bft)
16.07.2010 11:52 24,9 C 26,9 C 12,3 UV-I 4,7 C 45 % 41 % 100 % 1016,9 hPa 0,0 l/m 9,6 km/h (2 Bft) 2 min 14,5 km/h (3 Bft)
16.07.2010 11:54 24,9 C 27,0 C 12,3 UV-I 4,6 C 45 % 40 % 100 % 1016,9 hPa 0,0 l/m 9,2 km/h (2 Bft) 2 min 8,7 km/h (2 Bft)
16.07.2010 11:56 25,0 C 27,0 C 11,7 UV-I 4,7 C 45 % 40 % 100 % 1016,9 hPa 0,0 l/m 10,0 km/h (2 Bft) 2 min 8,7 km/h (2 Bft)
16.07.2010 11:58 25,0 C 27,1 C 11,7 UV-I 4,6 C 45 % 41 % 100 % 1016,9 hPa 0,0 l/m 8,8 km/h (2 Bft) 2 min 8,4 km/h (2 Bft)
16.07.2010 12:00 25,0 C 27,2 C 11,7 UV-I 4,8 C 45 % 41 % 100 % 1016,9 hPa 0,0 l/m 8,8 km/h (2 Bft) 2 min 8,7 km/h (2 Bft)
16.07.2010 12:02 25,0 C 27,2 C 10,9 UV-I 4,8 C 45 % 41 % 100 % 1016,9 hPa 0,0 l/m 8,8 km/h (2 Bft) 2 min 11,9 km/h (2 Bft)
16.07.2010 12:04 25,0 C 27,2 C 10,9 UV-I 4,8 C 45 % 40 % 100 % 1016,9 hPa 0,0 l/m 8,8 km/h (2 Bft) 2 min 11,9 km/h (2 Bft)
16.07.2010 12:08 25,1 C 27,3 C 10,5 UV-I 4,8 C 45 % 41 % 100 % 1016,9 hPa 0,0 l/m 7,6 km/h (2 Bft) 2 min 9,3 km/h (2 Bft)
16.07.2010 12:10 25,1 C 27,3 C 10,5 UV-I 4,9 C 45 % 40 % 100 % 1017,0 hPa 0,0 l/m 8,4 km/h (2 Bft) 2 min 11,6 km/h (2 Bft)
16.07.2010 12:12 25,1 C 27,3 C 10,2 UV-I 4,9 C 45 % 41 % 100 % 1017,0 hPa 0,0 l/m 8,0 km/h (2 Bft) 2 min 12,9 km/h (3 Bft)
16.07.2010 12:14 25,1 C 27,5 C 10,2 UV-I 4,7 C 45 % 41 % 100 % 1017,0 hPa 0,0 l/m 7,2 km/h (2 Bft) 2 min 12,9 km/h (3 Bft)
16.07.2010 12:16 25,1 C 27,4 C 9,9 UV-I 4,9 C 45 % 40 % 100 % 1017,0 hPa 0,0 l/m 6,8 km/h (2 Bft) 2 min 8,7 km/h (2 Bft)
16.07.2010 12:18 25,2 C 27,6 C 9,9 UV-I 4,9 C 45 % 41 % 100 % 1017,0 hPa 0,0 l/m 7,6 km/h (2 Bft) 2 min 10,9 km/h (2 Bft)
16.07.2010 12:20 25,2 C 27,6 C 9,9 UV-I 4,9 C 45 % 39 % 100 % 1017,0 hPa 0,0 l/m 8,0 km/h (2 Bft) 2 min 10,9 km/h (2 Bft)
16.07.2010 12:22 25,2 C 27,7 C 9,7 UV-I 4,7 C 45 % 39 % 100 % 1017,0 hPa 0,0 l/m 8,0 km/h (2 Bft) 2 min 9,3 km/h (2 Bft)
16.07.2010 12:24 25,2 C 27,6 C 9,7 UV-I 4,8 C 45 % 40 % 100 % 1017,0 hPa 0,0 l/m 8,4 km/h (2 Bft) 2 min 11,6 km/h (2 Bft)
16.07.2010 12:26 25,2 C 27,7 C 9,5 UV-I 4,6 C 45 % 40 % 100 % 1017,0 hPa 0,0 l/m 8,8 km/h (2 Bft) 2 min 12,9 km/h (3 Bft)
16.07.2010 12:30 25,3 C 27,8 C 9,5 UV-I 4,8 C 45 % 40 % 100 % 1017,2 hPa 0,0 l/m 8,4 km/h (2 Bft) 2 min 12,9 km/h (3 Bft)
16.07.2010 12:32 25,3 C 27,9 C 9,2 UV-I 4,7 C 45 % 41 % 100 % 1017,2 hPa 0,0 l/m 7,6 km/h (2 Bft) 2 min 8,0 km/h (2 Bft)
16.07.2010 12:34 25,2 C 27,9 C 9,2 UV-I 4,9 C 45 % 41 % 100 % 1017,2 hPa 0,0 l/m 7,6 km/h (2 Bft) 2 min 16,1 km/h (3 Bft)
16.07.2010 12:36 25,2 C 28,0 C 9,1 UV-I 4,8 C 45 % 41 % 100 % 1017,2 hPa 0,0 l/m 7,2 km/h (2 Bft) 2 min 16,1 km/h (3 Bft)
16.07.2010 12:38 25,4 C 28,0 C 9,1 UV-I 4,8 C 45 % 40 % 100 % 1017,2 hPa 0,0 l/m 7,6 km/h (2 Bft) 2 min 7,1 km/h (2 Bft)
16.07.2010 12:40 25,4 C 28,0 C 9,1 UV-I 4,8 C 45 % 39 % 100 % 1017,2 hPa 0,0 l/m 8,8 km/h (2 Bft) 2 min 16,4 km/h (3 Bft)
16.07.2010 12:42 25,4 C 28,0 C 8,9 UV-I 4,8 C 45 % 39 % 100 % 1017,2 hPa 0,0 l/m 8,8 km/h (2 Bft) 2 min 16,4 km/h (3 Bft)
16.07.2010 12:44 25,4 C 28,1 C 8,9 UV-I 4,7 C 45 % 40 % 100 % 1017,2 hPa 0,0 l/m 9,2 km/h (2 Bft) 2 min 11,9 km/h (2 Bft)
16.07.2010 12:46 25,4 C 28,2 C 8,6 UV-I 4,7 C 45 % 41 % 100 % 1017,2 hPa 0,0 l/m 8,4 km/h (2 Bft) 2 min 11,9 km/h (2 Bft)
16.07.2010 12:48 25,5 C 28,2 C 8,6 UV-I 4,8 C 45 % 41 % 100 % 1017,3 hPa 0,0 l/m 7,6 km/h (2 Bft) 2 min 9,7 km/h (2 Bft)
16.07.2010 12:50 25,5 C 28,4 C 8,6 UV-I 4,6 C 45 % 40 % 100 % 1017,3 hPa 0,0 l/m 7,2 km/h (2 Bft) 2 min 11,6 km/h (2 Bft)
16.07.2010 12:52 25,5 C 28,3 C 8,7 UV-I 4,7 C 45 % 40 % 100 % 1017,3 hPa 0,0 l/m 6,4 km/h (2 Bft) 2 min 4,8 km/h (1 Bft)
16.07.2010 12:54 25,6 C 28,4 C 8,7 UV-I 4,7 C 45 % 40 % 100 % 1017,3 hPa 0,0 l/m 7,2 km/h (2 Bft) 2 min 11,9 km/h (2 Bft)
16.07.2010 12:56 25,6 C 28,4 C 8,7 UV-I 4,7 C 46 % 40 % 100 % 1017,3 hPa 0,0 l/m 7,6 km/h (2 Bft) 2 min 11,9 km/h (2 Bft)
16.07.2010 12:58 25,6 C 28,4 C 8,7 UV-I 4,7 C 46 % 40 % 100 % 1017,3 hPa 0,0 l/m 8,0 km/h (2 Bft) 2 min 10,3 km/h (2 Bft)
16.07.2010 13:00 25,6 C 28,4 C 8,7 UV-I 4,7 C 46 % 39 % 100 % 1017,3 hPa 0,0 l/m 8,4 km/h (2 Bft) 2 min 11,3 km/h (2 Bft)
16.07.2010 13:02 25,6 C 28,4 C 8,6 UV-I 4,7 C 45 % 40 % 100 % 1017,3 hPa 0,0 l/m 8,8 km/h (2 Bft) 2 min 11,3 km/h (2 Bft)
16.07.2010 13:04 25,7 C 28,5 C 8,6 UV-I 4,6 C 45 % 40 % 100 % 1017,3 hPa 0,0 l/m 9,2 km/h (2 Bft) 2 min 11,6 km/h (2 Bft)
16.07.2010 13:06 25,7 C 28,5 C 8,6 UV-I 4,4 C 45 % 39 % 100 % 1017,3 hPa 0,0 l/m 9,2 km/h (2 Bft) 2 min 11,6 km/h (2 Bft)
16.07.2010 13:08 25,7 C 28,5 C 8,6 UV-I 4,4 C 45 % 39 % 100 % 1017,3 hPa 0,0 l/m 9,2 km/h (2 Bft) 2 min 7,7 km/h (2 Bft)
16.07.2010 13:10 25,8 C 28,5 C 8,6 UV-I 4,4 C 46 % 40 % 100 % 1017,3 hPa 0,0 l/m 8,8 km/h (2 Bft) 2 min 7,7 km/h (2 Bft)
16.07.2010 13:12 25,8 C 28,6 C 8,5 UV-I 4,5 C 46 % 40 % 100 % 1017,3 hPa 0,0 l/m 9,2 km/h (2 Bft) 2 min 10,3 km/h (2 Bft)
16.07.2010 13:14 25,8 C 28,6 C 8,5 UV-I 4,5 C 46 % 39 % 100 % 1017,3 hPa 0,0 l/m 9,2 km/h (2 Bft) 2 min 6,1 km/h (2 Bft)
16.07.2010 13:16 25,8 C 28,6 C 8,6 UV-I 4,4 C 46 % 39 % 100 % 1017,3 hPa 0,0 l/m 8,4 km/h (2 Bft) 2 min 8,7 km/h (2 Bft)
16.07.2010 13:18 25,8 C 28,6 C 8,6 UV-I 4,5 C 46 % 40 % 100 % 1017,3 hPa 0,0 l/m 8,4 km/h (2 Bft) 2 min 8,7 km/h (2 Bft)
16.07.2010 13:20 25,9 C 28,7 C 8,6 UV-I 4,4 C 46 % 40 % 100 % 1017,3 hPa 0,0 l/m 8,0 km/h (2 Bft) 2 min 10,6 km/h (2 Bft)
16.07.2010 13:22 25,9 C 28,7 C 8,5 UV-I 4,5 C 46 % 40 % 100 % 1017,3 hPa 0,0 l/m 8,0 km/h (2 Bft) 2 min 10,6 km/h (2 Bft)
16.07.2010 13:24 25,9 C 28,9 C 8,5 UV-I 4,2 C 46 % 42 % 100 % 1017,3 hPa 0,0 l/m 7,6 km/h (2 Bft) 2 min 12,2 km/h (2 Bft)
16.07.2010 13:26 26,0 C 28,8 C 8,6 UV-I 4,3 C 46 % 40 % 100 % 1017,3 hPa 0,0 l/m 8,0 km/h (2 Bft) 2 min 16,4 km/h (3 Bft)
16.07.2010 13:28 26,0 C 28,8 C 8,6 UV-I 4,3 C 46 % 40 % 100 % 1017,3 hPa 0,0 l/m 9,6 km/h (2 Bft) 2 min 16,4 km/h (3 Bft)
16.07.2010 13:30 26,0 C 28,7 C 8,6 UV-I 4,1 C 46 % 38 % 100 % 1017,3 hPa 0,0 l/m 10,4 km/h (2 Bft) 2 min 15,4 km/h (3 Bft)
16.07.2010 13:32 26,0 C 28,6 C 8,6 UV-I 4,2 C 46 % 38 % 100 % 1017,3 hPa 0,0 l/m 10,8 km/h (2 Bft) 2 min 10,6 km/h (2 Bft)
16.07.2010 13:34 26,0 C 28,6 C 8,6 UV-I 4,2 C 45 % 40 % 100 % 1017,3 hPa 0,0 l/m 10,4 km/h (2 Bft) 2 min 10,6 km/h (2 Bft)
16.07.2010 13:36 26,1 C 28,8 C 8,6 UV-I 4,1 C 45 % 39 % 100 % 1017,3 hPa 0,0 l/m 11,2 km/h (2 Bft) 2 min 12,6 km/h (3 Bft)
16.07.2010 13:38 26,1 C 28,7 C 8,6 UV-I 4,1 C 45 % 40 % 100 % 1017,3 hPa 0,0 l/m 10,8 km/h (2 Bft) 2 min 12,6 km/h (3 Bft)
16.07.2010 13:40 26,1 C 28,8 C 8,6 UV-I 4,1 C 45 % 39 % 100 % 1017,3 hPa 0,0 l/m 9,6 km/h (2 Bft) 2 min 10,6 km/h (2 Bft)
16.07.2010 13:42 26,2 C 28,8 C 8,6 UV-I 4,2 C 45 % 39 % 100 % 1017,3 hPa 0,0 l/m 10,4 km/h (2 Bft) 2 min 19,6 km/h (3 Bft)
16.07.2010 13:44 26,2 C 28,9 C 8,6 UV-I 4,1 C 45 % 39 % 100 % 1017,3 hPa 0,0 l/m 10,0 km/h (2 Bft) 2 min 19,6 km/h (3 Bft)
16.07.2010 13:48 26,2 C 28,9 C 8,5 UV-I 4,1 C 45 % 39 % 100 % 1017,3 hPa 0,0 l/m 8,8 km/h (2 Bft) 2 min 7,1 km/h (2 Bft)
16.07.2010 13:50 26,3 C 29,1 C 8,5 UV-I 4,2 C 45 % 40 % 100 % 1017,5 hPa 0,0 l/m 8,0 km/h (2 Bft) 2 min 5,5 km/h (1 Bft)
16.07.2010 13:52 26,2 C 29,1 C 8,7 UV-I 4,6 C 45 % 40 % 100 % 1017,5 hPa 0,0 l/m 6,8 km/h (2 Bft) 2 min 7,1 km/h (2 Bft)
16.07.2010 13:54 26,2 C 29,3 C 8,7 UV-I 4,6 C 45 % 39 % 100 % 1017,5 hPa 0,0 l/m 6,0 km/h (2 Bft) 2 min 10,3 km/h (2 Bft)
16.07.2010 13:56 26,4 C 29,5 C 8,8 UV-I 4,4 C 45 % 39 % 100 % 1017,5 hPa 0,0 l/m 5,2 km/h (1 Bft) 2 min 10,3 km/h (2 Bft)
16.07.2010 13:58 26,4 C 29,4 C 8,8 UV-I 4,5 C 45 % 38 % 100 % 1017,5 hPa 0,0 l/m 6,0 km/h (2 Bft) 2 min 13,5 km/h (3 Bft)
16.07.2010 14:00 26,4 C 29,3 C 8,8 UV-I 4,6 C 45 % 39 % 100 % 1017,5 hPa 0,0 l/m 6,8 km/h (2 Bft) 2 min 13,5 km/h (3 Bft)
16.07.2010 14:02 26,5 C 29,4 C 9,2 UV-I 4,4 C 45 % 38 % 100 % 1017,5 hPa 0,0 l/m 8,4 km/h (2 Bft) 2 min 12,9 km/h (3 Bft)
16.07.2010 14:04 26,5 C 29,5 C 9,2 UV-I 4,3 C 45 % 38 % 100 % 1017,5 hPa 0,0 l/m 8,4 km/h (2 Bft) 2 min 12,9 km/h (3 Bft)
16.07.2010 14:06 26,6 C 29,5 C 9,3 UV-I 4,3 C 45 % 39 % 100 % 1017,5 hPa 0,0 l/m 8,4 km/h (2 Bft) 2 min 7,7 km/h (2 Bft)
16.07.2010 14:08 26,6 C 29,5 C 9,3 UV-I 4,4 C 45 % 39 % 100 % 1017,7 hPa 0,0 l/m 8,0 km/h (2 Bft) 2 min 19,0 km/h (3 Bft)
16.07.2010 14:10 26,7 C 29,5 C 9,3 UV-I 4,5 C 45 % 38 % 100 % 1017,7 hPa 0,0 l/m 8,0 km/h (2 Bft) 2 min 19,0 km/h (3 Bft)
16.07.2010 14:12 26,7 C 29,4 C 8,2 UV-I 4,1 C 45 % 39 % 100 % 1017,7 hPa 0,0 l/m 7,6 km/h (2 Bft) 2 min 15,1 km/h (3 Bft)
16.07.2010 14:14 26,7 C 29,3 C 8,2 UV-I 3,6 C 45 % 39 % 100 % 1017,7 hPa 0,0 l/m 6,8 km/h (2 Bft) 2 min 15,1 km/h (3 Bft)
16.07.2010 14:16 26,7 C 29,3 C 7,7 UV-I 3,3 C 45 % 39 % 94 % 1017,7 hPa 0,0 l/m 8,4 km/h (2 Bft) 2 min 14,5 km/h (3 Bft)
16.07.2010 14:18 26,8 C 29,3 C 7,7 UV-I 3,3 C 45 % 39 % 94 % 1017,7 hPa 0,0 l/m 9,6 km/h (2 Bft) 2 min 14,5 km/h (3 Bft)
16.07.2010 14:20 26,8 C 29,3 C 7,7 UV-I 3,4 C 45 % 39 % 97 % 1017,7 hPa 0,0 l/m 10,0 km/h (2 Bft) 2 min 12,2 km/h (2 Bft)
16.07.2010 14:22 26,9 C 29,2 C 8,8 UV-I 3,5 C 45 % 39 % 100 % 1017,7 hPa 0,0 l/m 10,8 km/h (2 Bft) 2 min 15,8 km/h (3 Bft)
16.07.2010 14:24 27,0 C 29,1 C 8,8 UV-I 2,8 C 45 % 39 % 80 % 1017,7 hPa 0,0 l/m 12,4 km/h (3 Bft) 0 min 17,7 km/h (3 Bft)
16.07.2010 14:26 27,0 C 28,9 C 7,0 UV-I 2,6 C 45 % 39 % 74 % 1017,7 hPa 0,0 l/m 12,0 km/h (2 Bft) 0 min 17,7 km/h (3 Bft)
16.07.2010 14:28 27,1 C 28,9 C 7,0 UV-I 2,7 C 45 % 39 % 77 % 1017,6 hPa 0,0 l/m 12,0 km/h (2 Bft) 0 min 13,2 km/h (3 Bft)
16.07.2010 14:30 27,2 C 29,0 C 7,0 UV-I 2,9 C 45 % 40 % 83 % 1017,6 hPa 0,0 l/m 10,8 km/h (2 Bft) 2 min 13,2 km/h (3 Bft)
16.07.2010 14:32 27,2 C 29,2 C 9,3 UV-I 3,1 C 44 % 40 % 89 % 1017,6 hPa 0,0 l/m 10,0 km/h (2 Bft) 2 min 8,4 km/h (2 Bft)
16.07.2010 14:34 27,2 C 29,3 C 9,3 UV-I 3,3 C 44 % 40 % 94 % 1017,6 hPa 0,0 l/m 8,8 km/h (2 Bft) 2 min 10,6 km/h (2 Bft)
16.07.2010 14:36 27,4 C 29,5 C 8,1 UV-I 3,2 C 44 % 40 % 91 % 1017,6 hPa 0,0 l/m 7,6 km/h (2 Bft) 2 min 10,6 km/h (2 Bft)
16.07.2010 14:38 27,4 C 29,5 C 8,1 UV-I 3,2 C 44 % 40 % 91 % 1017,6 hPa 0,0 l/m 7,2 km/h (2 Bft) 2 min 14,2 km/h (3 Bft)
16.07.2010 14:40 27,5 C 29,5 C 8,1 UV-I 3,0 C 44 % 39 % 86 % 1017,6 hPa 0,0 l/m 7,6 km/h (2 Bft) 2 min 14,2 km/h (3 Bft)
16.07.2010 14:42 27,5 C 29,4 C 8,1 UV-I 3,0 C 44 % 40 % 86 % 1017,6 hPa 0,0 l/m 6,8 km/h (2 Bft) 2 min 6,4 km/h (2 Bft)
16.07.2010 14:44 27,6 C 29,6 C 8,1 UV-I 3,1 C 44 % 39 % 89 % 1017,6 hPa 0,0 l/m 7,6 km/h (2 Bft) 2 min 7,7 km/h (2 Bft)
16.07.2010 14:46 27,6 C 29,7 C 9,2 UV-I 3,4 C 44 % 39 % 97 % 1017,6 hPa 0,0 l/m 8,0 km/h (2 Bft) 2 min 24,8 km/h (4 Bft)
16.07.2010 14:48 27,7 C 29,7 C 9,2 UV-I 3,5 C 44 % 39 % 100 % 1018,5 hPa 0,0 l/m 9,2 km/h (2 Bft) 2 min 24,8 km/h (4 Bft)
16.07.2010 14:50 27,7 C 29,7 C 9,2 UV-I 3,4 C 44 % 39 % 97 % 1018,5 hPa 0,0 l/m 8,8 km/h (2 Bft) 2 min 11,3 km/h (2 Bft)
16.07.2010 14:52 27,8 C 29,7 C 8,9 UV-I 3,4 C 44 % 39 % 97 % 1018,5 hPa 0,0 l/m 9,2 km/h (2 Bft) 2 min 9,3 km/h (2 Bft)
16.07.2010 14:54 27,8 C 29,9 C 8,9 UV-I 3,3 C 44 % 38 % 94 % 1018,5 hPa 0,0 l/m 10,0 km/h (2 Bft) 2 min 15,4 km/h (3 Bft)
16.07.2010 14:56 27,9 C 29,8 C 9,1 UV-I 3,6 C 44 % 39 % 100 % 1018,5 hPa 0,0 l/m 10,4 km/h (2 Bft) 2 min 16,4 km/h (3 Bft)
16.07.2010 14:58 28,0 C 29,9 C 9,1 UV-I 3,6 C 44 % 39 % 100 % 1018,5 hPa 0,0 l/m 9,6 km/h (2 Bft) 2 min 6,4 km/h (2 Bft)
16.07.2010 15:00 28,0 C 29,9 C 9,1 UV-I 3,6 C 44 % 38 % 100 % 1018,5 hPa 0,0 l/m 9,2 km/h (2 Bft) 2 min 10,3 km/h (2 Bft)
16.07.2010 15:02 28,1 C 30,0 C 9,2 UV-I 3,7 C 43 % 38 % 100 % 1018,5 hPa 0,0 l/m 9,2 km/h (2 Bft) 2 min 10,3 km/h (2 Bft)
16.07.2010 15:04 28,2 C 30,1 C 9,2 UV-I 3,6 C 43 % 39 % 100 % 1018,5 hPa 0,0 l/m 9,6 km/h (2 Bft) 2 min 8,7 km/h (2 Bft)
16.07.2010 15:06 28,2 C 30,1 C 9,1 UV-I 3,6 C 43 % 38 % 100 % 1018,5 hPa 0,0 l/m 9,6 km/h (2 Bft) 2 min 18,7 km/h (3 Bft)
16.07.2010 15:08 28,2 C 30,1 C 9,1 UV-I 3,6 C 43 % 38 % 100 % 1018,8 hPa 0,0 l/m 9,2 km/h (2 Bft) 2 min 18,7 km/h (3 Bft)
16.07.2010 15:10 28,4 C 30,0 C 9,1 UV-I 3,7 C 43 % 38 % 100 % 1018,8 hPa 0,0 l/m 10,4 km/h (2 Bft) 2 min 29,3 km/h (5 Bft)
16.07.2010 15:12 28,4 C 30,1 C 9,2 UV-I 3,5 C 43 % 38 % 100 % 1018,8 hPa 0,0 l/m 11,2 km/h (2 Bft) 2 min 29,3 km/h (5 Bft)
16.07.2010 15:14 28,5 C 30,0 C 9,2 UV-I 3,5 C 43 % 38 % 100 % 1018,8 hPa 0,0 l/m 11,2 km/h (2 Bft) 2 min 12,2 km/h (2 Bft)
16.07.2010 15:16 28,6 C 30,0 C 9,4 UV-I 3,6 C 43 % 38 % 100 % 1018,8 hPa 0,0 l/m 10,8 km/h (2 Bft) 2 min 10,9 km/h (2 Bft)
16.07.2010 15:18 28,7 C 30,1 C 9,4 UV-I 3,6 C 42 % 39 % 100 % 1018,8 hPa 0,0 l/m 10,4 km/h (2 Bft) 2 min 11,3 km/h (2 Bft)
16.07.2010 15:20 28,7 C 30,0 C 9,4 UV-I 3,7 C 42 % 39 % 100 % 1018,8 hPa 0,0 l/m 10,8 km/h (2 Bft) 2 min 29,3 km/h (5 Bft)
16.07.2010 15:22 28,8 C 30,3 C 9,5 UV-I 3,5 C 42 % 38 % 100 % 1018,8 hPa 0,0 l/m 9,2 km/h (2 Bft) 2 min 8,4 km/h (2 Bft)
16.07.2010 15:24 28,9 C 30,3 C 9,5 UV-I 3,6 C 42 % 39 % 100 % 1018,8 hPa 0,0 l/m 8,8 km/h (2 Bft) 2 min 8,4 km/h (2 Bft)
16.07.2010 15:26 29,0 C 30,3 C 9,9 UV-I 3,7 C 42 % 39 % 100 % 1018,8 hPa 0,0 l/m 8,4 km/h (2 Bft) 2 min 5,8 km/h (2 Bft)
16.07.2010 15:28 29,0 C 30,3 C 9,9 UV-I 4,0 C 42 % 39 % 100 % 1019,6 hPa 0,0 l/m 7,6 km/h (2 Bft) 2 min 10,6 km/h (2 Bft)
16.07.2010 15:32 29,2 C 30,5 C 10,1 UV-I 4,2 C 42 % 38 % 100 % 1019,6 hPa 0,0 l/m 7,6 km/h (2 Bft) 2 min 10,6 km/h (2 Bft)
16.07.2010 15:34 29,2 C 30,4 C 10,1 UV-I 4,1 C 42 % 39 % 100 % 1019,6 hPa 0,0 l/m 7,6 km/h (2 Bft) 2 min 10,3 km/h (2 Bft)
16.07.2010 15:36 29,2 C 30,5 C 9,5 UV-I 3,5 C 42 % 38 % 100 % 1019,6 hPa 0,0 l/m 8,0 km/h (2 Bft) 2 min 9,7 km/h (2 Bft)
16.07.2010 15:38 29,2 C 30,5 C 9,5 UV-I 3,5 C 42 % 39 % 100 % 1019,6 hPa 0,0 l/m 8,4 km/h (2 Bft) 2 min 6,1 km/h (2 Bft)
16.07.2010 15:40 29,2 C 30,5 C 9,5 UV-I 3,8 C 42 % 39 % 100 % 1019,6 hPa 0,0 l/m 8,0 km/h (2 Bft) 2 min 5,5 km/h (1 Bft)
16.07.2010 15:42 29,4 C 30,5 C 10,7 UV-I 4,0 C 41 % 38 % 100 % 1019,6 hPa 0,0 l/m 7,6 km/h (2 Bft) 2 min 7,4 km/h (2 Bft)
16.07.2010 15:44 29,5 C 30,7 C 10,7 UV-I 4,2 C 41 % 38 % 100 % 1019,6 hPa 0,0 l/m 8,0 km/h (2 Bft) 2 min 8,4 km/h (2 Bft)
16.07.2010 15:46 29,5 C 30,7 C 11,8 UV-I 4,5 C 41 % 38 % 100 % 1019,6 hPa 0,0 l/m 7,6 km/h (2 Bft) 2 min 8,4 km/h (2 Bft)
16.07.2010 15:48 29,6 C 30,7 C 11,8 UV-I 4,8 C 41 % 38 % 100 % 1020,6 hPa 0,0 l/m 7,2 km/h (2 Bft) 2 min 10,6 km/h (2 Bft)
16.07.2010 15:50 29,6 C 30,8 C 11,8 UV-I 4,8 C 41 % 37 % 100 % 1020,6 hPa 0,0 l/m 8,0 km/h (2 Bft) 2 min 10,6 km/h (2 Bft)
16.07.2010 15:52 29,7 C 30,7 C 9,9 UV-I 4,5 C 41 % 38 % 100 % 1020,6 hPa 0,0 l/m 8,0 km/h (2 Bft) 2 min 10,6 km/h (2 Bft)
16.07.2010 15:54 29,7 C 30,5 C 9,9 UV-I 4,3 C 41 % 38 % 100 % 1020,6 hPa 0,0 l/m 7,6 km/h (2 Bft) 2 min 5,5 km/h (1 Bft)
16.07.2010 15:56 29,7 C 30,4 C 6,7 UV-I 3,8 C 41 % 39 % 100 % 1020,6 hPa 0,0 l/m 7,6 km/h (2 Bft) 2 min 7,1 km/h (2 Bft)
16.07.2010 15:58 29,7 C 30,3 C 6,7 UV-I 3,3 C 41 % 39 % 94 % 1020,6 hPa 0,0 l/m 6,8 km/h (2 Bft) 2 min 7,1 km/h (2 Bft)
16.07.2010 16:00 29,6 C 30,3 C 6,7 UV-I 3,1 C 41 % 39 % 89 % 1020,6 hPa 0,0 l/m 6,4 km/h (2 Bft) 2 min 6,4 km/h (2 Bft)
16.07.2010 16:02 29,7 C 30,2 C 7,7 UV-I 3,3 C 41 % 39 % 94 % 1020,6 hPa 0,0 l/m 6,0 km/h (2 Bft) 2 min 9,0 km/h (2 Bft)
16.07.2010 16:04 29,8 C 30,0 C 7,7 UV-I 3,2 C 41 % 39 % 91 % 1020,6 hPa 0,0 l/m 6,0 km/h (2 Bft) 2 min 9,0 km/h (2 Bft)
16.07.2010 16:06 29,7 C 30,0 C 5,5 UV-I 2,9 C 41 % 39 % 83 % 1020,6 hPa 0,0 l/m 6,4 km/h (2 Bft) 2 min 8,4 km/h (2 Bft)
16.07.2010 16:08 29,7 C 30,0 C 5,5 UV-I 2,4 C 41 % 39 % 69 % 1019,6 hPa 0,0 l/m 6,0 km/h (2 Bft) 0 min 11,3 km/h (2 Bft)
16.07.2010 16:10 29,6 C 29,9 C 5,5 UV-I 2,2 C 41 % 41 % 63 % 1019,6 hPa 0,0 l/m 7,6 km/h (2 Bft) 0 min 11,6 km/h (2 Bft)
16.07.2010 16:12 29,7 C 29,9 C 7,6 UV-I 2,2 C 41 % 41 % 63 % 1019,6 hPa 0,0 l/m 7,6 km/h (2 Bft) 0 min 11,6 km/h (2 Bft)
16.07.2010 16:14 29,7 C 29,9 C 7,6 UV-I 2,6 C 41 % 41 % 74 % 1019,6 hPa 0,0 l/m 7,6 km/h (2 Bft) 0 min 4,5 km/h (1 Bft)
16.07.2010 16:16 29,7 C 29,9 C 7,6 UV-I 2,8 C 41 % 40 % 80 % 1019,6 hPa 0,0 l/m 7,2 km/h (2 Bft) 0 min 5,1 km/h (1 Bft)
16.07.2010 16:18 29,7 C 30,1 C 7,6 UV-I 2,7 C 41 % 39 % 77 % 1019,6 hPa 0,0 l/m 7,6 km/h (2 Bft) 0 min 10,0 km/h (2 Bft)
16.07.2010 16:20 29,8 C 30,1 C 7,6 UV-I 3,1 C 41 % 39 % 89 % 1019,6 hPa 0,0 l/m 7,2 km/h (2 Bft) 2 min 10,0 km/h (2 Bft)
16.07.2010 16:22 29,8 C 30,2 C 11,7 UV-I 3,4 C 41 % 39 % 97 % 1019,6 hPa 0,0 l/m 7,2 km/h (2 Bft) 2 min 9,7 km/h (2 Bft)
16.07.2010 16:24 29,8 C 30,4 C 11,7 UV-I 3,6 C 41 % 39 % 100 % 1019,6 hPa 0,0 l/m 6,8 km/h (2 Bft) 2 min 9,7 km/h (2 Bft)
16.07.2010 16:26 29,9 C 30,4 C 13,0 UV-I 4,1 C 41 % 39 % 100 % 1019,6 hPa 0,0 l/m 7,6 km/h (2 Bft) 2 min 13,8 km/h (3 Bft)
16.07.2010 16:28 30,0 C 30,4 C 13,0 UV-I 4,2 C 41 % 39 % 100 % 1019,5 hPa 0,0 l/m 8,4 km/h (2 Bft) 2 min 13,8 km/h (3 Bft)
16.07.2010 16:30 30,0 C 30,7 C 13,0 UV-I 4,1 C 41 % 39 % 100 % 1019,5 hPa 0,0 l/m 8,0 km/h (2 Bft) 2 min 12,9 km/h (3 Bft)
16.07.2010 16:32 30,1 C 30,7 C 12,8 UV-I 4,2 C 41 % 38 % 100 % 1019,5 hPa 0,0 l/m 9,6 km/h (2 Bft) 2 min 19,6 km/h (3 Bft)
16.07.2010 16:34 30,1 C 30,5 C 12,8 UV-I 4,1 C 41 % 37 % 100 % 1019,5 hPa 0,0 l/m 10,4 km/h (2 Bft) 2 min 19,6 km/h (3 Bft)
16.07.2010 16:36 30,1 C 30,3 C 12,8 UV-I 3,6 C 41 % 38 % 100 % 1019,5 hPa 0,0 l/m 10,4 km/h (2 Bft) 2 min 11,6 km/h (2 Bft)
16.07.2010 16:40 30,1 C 30,3 C 12,8 UV-I 3,1 C 40 % 38 % 89 % 1019,5 hPa 0,0 l/m 9,2 km/h (2 Bft) 2 min 11,6 km/h (2 Bft)
16.07.2010 16:42 30,1 C 30,3 C 7,6 UV-I 2,7 C 40 % 38 % 77 % 1019,5 hPa 0,0 l/m 8,8 km/h (2 Bft) 0 min 10,0 km/h (2 Bft)
16.07.2010 16:44 30,1 C 30,3 C 7,6 UV-I 2,7 C 41 % 38 % 77 % 1019,5 hPa 0,0 l/m 8,0 km/h (2 Bft) 0 min 10,0 km/h (2 Bft)
16.07.2010 16:46 30,2 C 30,3 C 12,3 UV-I 3,0 C 40 % 38 % 86 % 1019,5 hPa 0,0 l/m 7,2 km/h (2 Bft) 2 min 6,1 km/h (2 Bft)
16.07.2010 16:48 30,2 C 30,3 C 12,3 UV-I 3,4 C 40 % 38 % 97 % 1020,1 hPa 0,0 l/m 7,2 km/h (2 Bft) 2 min 15,8 km/h (3 Bft)
16.07.2010 16:50 30,2 C 30,3 C 12,3 UV-I 3,4 C 40 % 38 % 97 % 1020,1 hPa 0,0 l/m 7,6 km/h (2 Bft) 2 min 15,8 km/h (3 Bft)
16.07.2010 16:52 30,2 C 30,2 C 7,0 UV-I 3,1 C 40 % 38 % 89 % 1020,1 hPa 0,0 l/m 8,0 km/h (2 Bft) 2 min 19,6 km/h (3 Bft)
16.07.2010 16:54 30,2 C 30,0 C 7,0 UV-I 2,8 C 40 % 38 % 80 % 1020,1 hPa 0,0 l/m 8,0 km/h (2 Bft) 0 min 19,6 km/h (3 Bft)
16.07.2010 16:56 30,1 C 29,9 C 5,7 UV-I 2,4 C 40 % 38 % 69 % 1020,1 hPa 0,0 l/m 8,8 km/h (2 Bft) 0 min 9,7 km/h (2 Bft)
16.07.2010 16:58 30,1 C 29,7 C 5,7 UV-I 2,1 C 40 % 38 % 60 % 1020,1 hPa 0,0 l/m 9,6 km/h (2 Bft) 0 min 13,8 km/h (3 Bft)
16.07.2010 17:00 30,1 C 29,6 C 5,7 UV-I 1,9 C 40 % 38 % 54 % 1020,1 hPa 0,0 l/m 10,0 km/h (2 Bft) 0 min 13,8 km/h (3 Bft)
16.07.2010 17:04 30,0 C 29,6 C 4,6 UV-I 1,3 C 40 % 39 % 37 % 1020,1 hPa 0,0 l/m 8,8 km/h (2 Bft) 0 min 6,1 km/h (2 Bft)
16.07.2010 17:08 30,0 C 29,6 C 7,5 UV-I 1,2 C 40 % 39 % 34 % 1019,0 hPa 0,0 l/m 8,8 km/h (2 Bft) 0 min 22,2 km/h (4 Bft)
16.07.2010 17:16 30,0 C 30,2 C 14,0 UV-I 2,5 C 40 % 39 % 71 % 1019,0 hPa 0,0 l/m 9,2 km/h (2 Bft) 0 min 13,8 km/h (3 Bft)
16.07.2010 17:18 30,1 C 30,3 C 14,0 UV-I 2,9 C 40 % 40 % 83 % 1019,0 hPa 0,0 l/m 8,0 km/h (2 Bft) 2 min 8,0 km/h (2 Bft)
16.07.2010 17:20 30,1 C 30,4 C 14,0 UV-I 3,3 C 40 % 39 % 94 % 1019,0 hPa 0,0 l/m 8,4 km/h (2 Bft) 2 min 5,8 km/h (2 Bft)
16.07.2010 17:22 30,2 C 30,5 C 12,6 UV-I 3,5 C 40 % 39 % 100 % 1019,0 hPa 0,0 l/m 7,6 km/h (2 Bft) 2 min 5,8 km/h (2 Bft)
16.07.2010 17:24 30,2 C 30,5 C 12,6 UV-I 3,7 C 40 % 38 % 100 % 1019,0 hPa 0,0 l/m 7,6 km/h (2 Bft) 2 min 17,4 km/h (3 Bft)
16.07.2010 17:26 30,2 C 30,5 C 11,4 UV-I 3,7 C 40 % 38 % 100 % 1019,0 hPa 0,0 l/m 7,6 km/h (2 Bft) 2 min 17,4 km/h (3 Bft)
16.07.2010 17:28 30,2 C 30,5 C 11,4 UV-I 3,6 C 40 % 38 % 100 % 1019,1 hPa 0,0 l/m 7,6 km/h (2 Bft) 2 min 8,0 km/h (2 Bft)
16.07.2010 17:30 30,2 C 30,5 C 11,4 UV-I 3,6 C 40 % 38 % 100 % 1019,1 hPa 0,0 l/m 8,0 km/h (2 Bft) 2 min 6,1 km/h (2 Bft)
16.07.2010 17:32 30,3 C 30,5 C 11,9 UV-I 3,6 C 40 % 38 % 100 % 1019,1 hPa 0,0 l/m 8,8 km/h (2 Bft) 2 min 7,7 km/h (2 Bft)
16.07.2010 17:34 30,2 C 30,5 C 11,9 UV-I 3,7 C 40 % 38 % 100 % 1019,1 hPa 0,0 l/m 9,2 km/h (2 Bft) 2 min 21,9 km/h (4 Bft)
16.07.2010 17:38 30,2 C 30,4 C 11,2 UV-I 3,7 C 40 % 38 % 100 % 1019,1 hPa 0,0 l/m 9,2 km/h (2 Bft) 2 min 21,9 km/h (4 Bft)
16.07.2010 17:40 30,4 C 30,3 C 11,2 UV-I 3,8 C 40 % 38 % 100 % 1019,1 hPa 0,0 l/m 8,8 km/h (2 Bft) 2 min 8,4 km/h (2 Bft)
16.07.2010 17:42 30,4 C 30,3 C 7,5 UV-I 3,8 C 40 % 39 % 100 % 1019,1 hPa 0,0 l/m 9,2 km/h (2 Bft) 2 min 8,4 km/h (2 Bft)
16.07.2010 17:44 30,4 C 30,3 C 7,5 UV-I 3,6 C 40 % 38 % 100 % 1019,1 hPa 0,0 l/m 10,0 km/h (2 Bft) 2 min 19,0 km/h (3 Bft)
16.07.2010 17:46 30,4 C 30,2 C 5,6 UV-I 3,5 C 40 % 38 % 100 % 1019,1 hPa 0,0 l/m 10,0 km/h (2 Bft) 2 min 19,0 km/h (3 Bft)
16.07.2010 17:48 30,4 C 30,2 C 5,6 UV-I 3,4 C 40 % 38 % 97 % 1019,4 hPa 0,0 l/m 10,0 km/h (2 Bft) 2 min 16,7 km/h (3 Bft)
16.07.2010 17:50 30,4 C 30,3 C 5,6 UV-I 3,3 C 40 % 39 % 94 % 1019,4 hPa 0,0 l/m 9,2 km/h (2 Bft) 2 min 12,6 km/h (3 Bft)
16.07.2010 17:52 30,4 C 30,4 C 4,9 UV-I 3,4 C 40 % 39 % 97 % 1019,4 hPa 0,0 l/m 8,4 km/h (2 Bft) 2 min 6,4 km/h (2 Bft)
16.07.2010 17:54 30,4 C 30,5 C 4,9 UV-I 3,5 C 40 % 39 % 100 % 1019,4 hPa 0,0 l/m 8,4 km/h (2 Bft) 2 min 10,3 km/h (2 Bft)
16.07.2010 17:56 30,4 C 30,5 C 5,3 UV-I 3,6 C 40 % 38 % 100 % 1019,4 hPa 0,0 l/m 7,6 km/h (2 Bft) 2 min 7,7 km/h (2 Bft)
16.07.2010 17:58 30,4 C 30,5 C 5,3 UV-I 3,6 C 40 % 38 % 100 % 1019,4 hPa 0,0 l/m 6,4 km/h (2 Bft) 2 min 5,8 km/h (2 Bft)
16.07.2010 18:02 30,4 C 30,4 C 4,5 UV-I 3,8 C 40 % 39 % 100 % 1019,4 hPa 0,0 l/m 6,8 km/h (2 Bft) 2 min 6,1 km/h (2 Bft)
16.07.2010 18:04 30,5 C 30,5 C 4,5 UV-I 3,6 C 40 % 39 % 100 % 1019,4 hPa 0,0 l/m 6,8 km/h (2 Bft) 2 min 6,1 km/h (2 Bft)
16.07.2010 18:06 30,5 C 30,3 C 4,6 UV-I 3,7 C 40 % 38 % 100 % 1019,4 hPa 0,0 l/m 6,8 km/h (2 Bft) 2 min 6,4 km/h (2 Bft)
16.07.2010 18:08 30,5 C 30,3 C 4,6 UV-I 3,4 C 40 % 38 % 97 % 1019,0 hPa 0,0 l/m 6,8 km/h (2 Bft) 2 min 7,1 km/h (2 Bft)
16.07.2010 18:14 30,4 C 30,1 C 4,3 UV-I 3,0 C 40 % 38 % 86 % 1019,0 hPa 0,0 l/m 8,0 km/h (2 Bft) 2 min 12,6 km/h (3 Bft)
16.07.2010 18:18 30,4 C 30,1 C 3,8 UV-I 2,8 C 40 % 39 % 80 % 1019,0 hPa 0,0 l/m 8,4 km/h (2 Bft) 0 min 4,5 km/h (1 Bft)
16.07.2010 18:20 30,4 C 30,0 C 3,8 UV-I 2,9 C 40 % 39 % 83 % 1019,0 hPa 0,0 l/m 7,6 km/h (2 Bft) 2 min 7,4 km/h (2 Bft)
16.07.2010 18:22 30,4 C 29,9 C 3,7 UV-I 3,1 C 40 % 39 % 89 % 1019,0 hPa 0,0 l/m 7,2 km/h (2 Bft) 2 min 8,7 km/h (2 Bft)
16.07.2010 18:24 30,2 C 29,9 C 3,7 UV-I 3,1 C 40 % 39 % 89 % 1019,0 hPa 0,0 l/m 7,6 km/h (2 Bft) 2 min 8,7 km/h (2 Bft)
16.07.2010 18:26 30,2 C 29,9 C 3,7 UV-I 2,8 C 40 % 39 % 80 % 1019,0 hPa 0,0 l/m 6,8 km/h (2 Bft) 0 min 8,0 km/h (2 Bft)
16.07.2010 18:28 30,2 C 29,9 C 3,7 UV-I 2,5 C 40 % 39 % 71 % 1019,0 hPa 0,0 l/m 6,4 km/h (2 Bft) 0 min 8,0 km/h (2 Bft)
16.07.2010 18:30 30,2 C 29,8 C 3,7 UV-I 2,3 C 40 % 41 % 66 % 1019,0 hPa 0,0 l/m 6,8 km/h (2 Bft) 0 min 5,8 km/h (2 Bft)
16.07.2010 18:32 30,2 C 29,9 C 3,5 UV-I 1,8 C 40 % 42 % 51 % 1019,0 hPa 0,0 l/m 6,4 km/h (2 Bft) 0 min 5,8 km/h (2 Bft)
16.07.2010 18:34 30,2 C 29,9 C 3,5 UV-I 1,6 C 40 % 42 % 46 % 1019,0 hPa 0,0 l/m 6,0 km/h (2 Bft) 0 min 8,0 km/h (2 Bft)
16.07.2010 18:36 30,1 C 29,7 C 3,6 UV-I 1,6 C 40 % 42 % 46 % 1019,0 hPa 0,0 l/m 5,6 km/h (1 Bft) 0 min 8,0 km/h (2 Bft)
16.07.2010 18:38 30,1 C 29,7 C 3,6 UV-I 1,3 C 40 % 42 % 37 % 1019,0 hPa 0,0 l/m 5,6 km/h (1 Bft) 0 min 7,7 km/h (2 Bft)
16.07.2010 18:40 30,0 C 29,7 C 3,6 UV-I 1,2 C 40 % 43 % 34 % 1019,0 hPa 0,0 l/m 5,2 km/h (1 Bft) 0 min 4,8 km/h (1 Bft)
16.07.2010 18:42 30,0 C 29,6 C 3,4 UV-I 1,3 C 40 % 42 % 37 % 1019,0 hPa 0,0 l/m 5,2 km/h (1 Bft) 0 min 8,7 km/h (2 Bft)
16.07.2010 18:44 30,0 C 29,6 C 3,4 UV-I 1,2 C 41 % 43 % 34 % 1019,0 hPa 0,0 l/m 5,2 km/h (1 Bft) 0 min 8,7 km/h (2 Bft)
16.07.2010 18:46 29,9 C 29,6 C 3,2 UV-I 1,1 C 41 % 43 % 31 % 1019,0 hPa 0,0 l/m 5,2 km/h (1 Bft) 0 min 5,8 km/h (2 Bft)
16.07.2010 18:48 29,9 C 29,6 C 3,2 UV-I 0,9 C 41 % 43 % 26 % 1018,5 hPa 0,0 l/m 5,6 km/h (1 Bft) 0 min 9,7 km/h (2 Bft)
16.07.2010 18:50 29,8 C 29,5 C 3,2 UV-I 0,9 C 41 % 43 % 26 % 1018,5 hPa 0,0 l/m 5,6 km/h (1 Bft) 0 min 9,7 km/h (2 Bft)
16.07.2010 18:52 29,8 C 29,5 C 3,2 UV-I 0,7 C 41 % 43 % 20 % 1018,5 hPa 0,0 l/m 5,2 km/h (1 Bft) 0 min 7,7 km/h (2 Bft)
16.07.2010 18:54 29,7 C 29,4 C 3,2 UV-I 0,6 C 41 % 43 % 17 % 1018,5 hPa 0,0 l/m 5,2 km/h (1 Bft) 0 min 7,7 km/h (2 Bft)
16.07.2010 18:56 29,7 C 29,5 C 3,2 UV-I 0,4 C 41 % 43 % 11 % 1018,5 hPa 0,0 l/m 5,2 km/h (1 Bft) 0 min 5,8 km/h (2 Bft)
16.07.2010 18:58 29,6 C 29,4 C 3,2 UV-I 0,4 C 41 % 43 % 11 % 1018,5 hPa 0,0 l/m 4,8 km/h (1 Bft) 0 min 10,0 km/h (2 Bft)
16.07.2010 19:00 29,6 C 29,3 C 3,2 UV-I 0,3 C 41 % 43 % 9 % 1018,5 hPa 0,0 l/m 4,8 km/h (1 Bft) 0 min 10,0 km/h (2 Bft)
16.07.2010 19:02 29,6 C 29,3 C 3,1 UV-I 0,2 C 41 % 44 % 6 % 1018,5 hPa 0,0 l/m 3,6 km/h (1 Bft) 0 min 8,0 km/h (2 Bft)
16.07.2010 19:04 29,5 C 29,2 C 3,1 UV-I 0,2 C 41 % 43 % 6 % 1018,5 hPa 0,0 l/m 4,0 km/h (1 Bft) 0 min 7,7 km/h (2 Bft)
16.07.2010 19:06 29,5 C 29,2 C 3,0 UV-I 0,1 C 42 % 43 % 3 % 1018,5 hPa 0,0 l/m 4,8 km/h (1 Bft) 0 min 11,6 km/h (2 Bft)
16.07.2010 19:08 29,4 C 29,2 C 3,0 UV-I 0,0 C 42 % 43 % 0 % 1018,0 hPa 0,0 l/m 5,6 km/h (1 Bft) 0 min 11,6 km/h (2 Bft)
16.07.2010 19:10 29,4 C 29,1 C 3,0 UV-I 0,0 C 42 % 43 % 0 % 1018,0 hPa 0,0 l/m 4,4 km/h (1 Bft) 0 min 4,5 km/h (1 Bft)
16.07.2010 19:12 29,4 C 29,1 C 2,9 UV-I 0,0 C 42 % 43 % 0 % 1018,0 hPa 0,0 l/m 4,4 km/h (1 Bft) 0 min 4,8 km/h (1 Bft)
16.07.2010 19:14 29,2 C 29,1 C 2,9 UV-I 0,0 C 42 % 43 % 0 % 1018,0 hPa 0,0 l/m 4,8 km/h (1 Bft) 0 min 9,7 km/h (2 Bft)
16.07.2010 19:16 29,2 C 29,1 C 2,8 UV-I 0,0 C 42 % 43 % 0 % 1018,0 hPa 0,0 l/m 4,0 km/h (1 Bft) 0 min 9,7 km/h (2 Bft)
16.07.2010 19:18 29,3 C 29,1 C 2,8 UV-I 0,0 C 42 % 43 % 0 % 1018,0 hPa 0,0 l/m 4,4 km/h (1 Bft) 0 min 6,1 km/h (2 Bft)
16.07.2010 19:20 29,2 C 29,1 C 2,8 UV-I 0,0 C 42 % 43 % 0 % 1018,0 hPa 0,0 l/m 4,4 km/h (1 Bft) 0 min 6,1 km/h (2 Bft)
16.07.2010 19:22 29,2 C 29,1 C 2,5 UV-I 0,0 C 42 % 43 % 0 % 1018,0 hPa 0,0 l/m 5,2 km/h (1 Bft) 0 min 3,9 km/h (1 Bft)
16.07.2010 19:24 29,2 C 29,1 C 2,5 UV-I 0,0 C 42 % 43 % 0 % 1018,0 hPa 0,0 l/m 5,2 km/h (1 Bft) 0 min 5,1 km/h (1 Bft)
16.07.2010 19:26 29,1 C 29,1 C 2,3 UV-I 0,0 C 42 % 43 % 0 % 1018,0 hPa 0,0 l/m 4,8 km/h (1 Bft) 0 min 5,5 km/h (1 Bft)
16.07.2010 19:28 29,1 C 29,1 C 2,3 UV-I 0,0 C 42 % 43 % 0 % 1017,9 hPa 0,0 l/m 4,4 km/h (1 Bft) 0 min 5,5 km/h (1 Bft)
16.07.2010 19:30 29,1 C 28,9 C 2,3 UV-I 0,0 C 42 % 44 % 0 % 1017,9 hPa 0,0 l/m 4,0 km/h (1 Bft) 0 min 4,5 km/h (1 Bft)
16.07.2010 19:34 29,0 C 28,9 C 2,1 UV-I 0,0 C 43 % 43 % 0 % 1017,9 hPa 0,0 l/m 4,0 km/h (1 Bft) 0 min 5,1 km/h (1 Bft)
16.07.2010 19:36 29,0 C 28,9 C 1,4 UV-I 0,0 C 43 % 44 % 0 % 1017,9 hPa 0,0 l/m 4,0 km/h (1 Bft) 0 min 5,1 km/h (1 Bft)
16.07.2010 19:38 29,0 C 28,8 C 1,4 UV-I 0,0 C 43 % 44 % 0 % 1017,9 hPa 0,0 l/m 4,4 km/h (1 Bft) 0 min 4,2 km/h (1 Bft)
16.07.2010 19:40 29,0 C 28,8 C 1,4 UV-I 0,0 C 43 % 44 % 0 % 1017,9 hPa 0,0 l/m 4,4 km/h (1 Bft) 0 min 4,8 km/h (1 Bft)
16.07.2010 19:42 28,9 C 28,9 C 1,8 UV-I 0,0 C 43 % 45 % 0 % 1017,9 hPa 0,0 l/m 3,6 km/h (1 Bft) 0 min 4,8 km/h (1 Bft)
16.07.2010 19:44 28,9 C 28,7 C 1,8 UV-I 0,0 C 43 % 45 % 0 % 1017,9 hPa 0,0 l/m 3,6 km/h (1 Bft) 0 min 7,1 km/h (2 Bft)
16.07.2010 19:46 28,8 C 28,7 C 1,6 UV-I 0,0 C 43 % 44 % 0 % 1017,9 hPa 0,0 l/m 3,6 km/h (1 Bft) 0 min 7,1 km/h (2 Bft)
16.07.2010 19:48 28,8 C 28,7 C 1,6 UV-I 0,0 C 43 % 44 % 0 % 1017,6 hPa 0,0 l/m 3,2 km/h (1 Bft) 0 min 4,2 km/h (1 Bft)
16.07.2010 19:50 28,8 C 28,7 C 1,6 UV-I 0,0 C 43 % 44 % 0 % 1017,6 hPa 0,0 l/m 3,2 km/h (1 Bft) 0 min 4,2 km/h (1 Bft)
16.07.2010 19:52 28,8 C 28,6 C 1,5 UV-I 0,0 C 43 % 44 % 0 % 1017,6 hPa 0,0 l/m 3,2 km/h (1 Bft) 0 min 6,8 km/h (2 Bft)
16.07.2010 19:54 28,8 C 28,7 C 1,5 UV-I 0,0 C 43 % 44 % 0 % 1017,6 hPa 0,0 l/m 4,0 km/h (1 Bft) 0 min 6,8 km/h (2 Bft)
16.07.2010 19:56 28,7 C 28,7 C 1,7 UV-I 0,0 C 43 % 44 % 0 % 1017,6 hPa 0,0 l/m 3,6 km/h (1 Bft) 0 min 6,1 km/h (2 Bft)
16.07.2010 19:58 28,7 C 28,7 C 1,7 UV-I 0,0 C 43 % 45 % 0 % 1017,6 hPa 0,0 l/m 3,2 km/h (1 Bft) 0 min 6,4 km/h (2 Bft)
16.07.2010 20:00 28,7 C 28,6 C 1,7 UV-I 0,0 C 43 % 45 % 0 % 1017,6 hPa 0,0 l/m 3,6 km/h (1 Bft) 0 min 6,4 km/h (2 Bft)
16.07.2010 20:02 28,6 C 28,5 C 1,7 UV-I 0,0 C 43 % 45 % 0 % 1017,6 hPa 0,0 l/m 4,0 km/h (1 Bft) 0 min 5,8 km/h (2 Bft)
16.07.2010 20:04 28,6 C 28,5 C 1,7 UV-I 0,0 C 43 % 45 % 0 % 1017,6 hPa 0,0 l/m 4,4 km/h (1 Bft) 0 min 12,6 km/h (3 Bft)
16.07.2010 20:06 28,6 C 28,5 C 1,4 UV-I 0,0 C 43 % 44 % 0 % 1017,6 hPa 0,0 l/m 4,8 km/h (1 Bft) 0 min 6,8 km/h (2 Bft)
16.07.2010 20:08 28,6 C 28,5 C 1,4 UV-I 0,0 C 44 % 44 % 0 % 1017,6 hPa 0,0 l/m 4,8 km/h (1 Bft) 0 min 6,8 km/h (2 Bft)
16.07.2010 20:10 28,6 C 28,5 C 1,4 UV-I 0,0 C 43 % 45 % 0 % 1017,6 hPa 0,0 l/m 4,4 km/h (1 Bft) 0 min 4,2 km/h (1 Bft)
16.07.2010 20:12 28,5 C 28,5 C 1,4 UV-I 0,0 C 44 % 46 % 0 % 1017,6 hPa 0,0 l/m 4,4 km/h (1 Bft) 0 min 4,2 km/h (1 Bft)
16.07.2010 20:14 28,5 C 28,3 C 1,4 UV-I 0,0 C 44 % 46 % 0 % 1017,6 hPa 0,0 l/m 4,8 km/h (1 Bft) 0 min 5,8 km/h (2 Bft)
16.07.2010 20:16 28,5 C 28,3 C 1,3 UV-I 0,0 C 44 % 46 % 0 % 1017,6 hPa 0,0 l/m 4,0 km/h (1 Bft) 0 min 5,8 km/h (2 Bft)
16.07.2010 20:18 28,5 C 28,1 C 1,3 UV-I 0,0 C 44 % 47 % 0 % 1017,6 hPa 0,0 l/m 4,8 km/h (1 Bft) 0 min 5,1 km/h (1 Bft)
16.07.2010 20:20 28,4 C 28,0 C 1,3 UV-I 0,0 C 44 % 47 % 0 % 1017,6 hPa 0,0 l/m 4,8 km/h (1 Bft) 0 min 11,9 km/h (2 Bft)
16.07.2010 20:22 28,4 C 27,9 C 0,8 UV-I 0,0 C 44 % 47 % 0 % 1017,6 hPa 0,0 l/m 5,2 km/h (1 Bft) 0 min 11,9 km/h (2 Bft)
16.07.2010 20:24 28,4 C 27,9 C 0,8 UV-I 0,0 C 44 % 47 % 0 % 1017,6 hPa 0,0 l/m 4,8 km/h (1 Bft) 0 min 3,5 km/h (1 Bft)
16.07.2010 20:26 28,4 C 27,7 C 0,6 UV-I 0,0 C 44 % 47 % 0 % 1017,6 hPa 0,0 l/m 4,0 km/h (1 Bft) 0 min 4,8 km/h (1 Bft)
16.07.2010 20:28 28,4 C 27,7 C 0,6 UV-I 0,0 C 44 % 47 % 0 % 1017,8 hPa 0,0 l/m 2,8 km/h (1 Bft) 0 min 4,8 km/h (1 Bft)
16.07.2010 20:30 28,4 C 27,7 C 0,6 UV-I 0,0 C 44 % 48 % 0 % 1017,8 hPa 0,0 l/m 2,8 km/h (1 Bft) 0 min 5,5 km/h (1 Bft)
16.07.2010 20:32 28,4 C 27,5 C 0,6 UV-I 0,0 C 44 % 48 % 0 % 1017,8 hPa 0,0 l/m 2,0 km/h (1 Bft) 0 min 5,5 km/h (1 Bft)
16.07.2010 20:34 28,2 C 27,4 C 0,6 UV-I 0,0 C 44 % 48 % 0 % 1017,8 hPa 0,0 l/m 2,0 km/h (1 Bft) 0 min 0,0 km/h (0 Bft)
16.07.2010 20:36 28,2 C 27,5 C 0,4 UV-I 0,0 C 44 % 49 % 0 % 1017,8 hPa 0,0 l/m 2,0 km/h (1 Bft) 0 min 4,8 km/h (1 Bft)
16.07.2010 20:38 28,3 C 27,5 C 0,4 UV-I 0,0 C 44 % 49 % 0 % 1017,8 hPa 0,0 l/m 2,4 km/h (1 Bft) 0 min 4,8 km/h (1 Bft)
16.07.2010 20:42 28,2 C 27,3 C 0,2 UV-I 0,0 C 44 % 50 % 0 % 1017,8 hPa 0,0 l/m 2,0 km/h (1 Bft) 0 min 4,2 km/h (1 Bft)
16.07.2010 20:44 28,2 C 27,2 C 0,2 UV-I 0,0 C 44 % 51 % 0 % 1017,8 hPa 0,0 l/m 2,4 km/h (1 Bft) 0 min 12,2 km/h (2 Bft)
16.07.2010 20:48 28,2 C 27,1 C 0,0 UV-I 0,0 C 45 % 51 % 0 % 1017,8 hPa 0,0 l/m 2,8 km/h (1 Bft) 0 min 12,2 km/h (2 Bft)
16.07.2010 20:50 28,2 C 26,8 C 0,0 UV-I 0,0 C 45 % 52 % 0 % 1017,8 hPa 0,0 l/m 2,4 km/h (1 Bft) 0 min 6,8 km/h (2 Bft)
16.07.2010 20:52 28,2 C 26,8 C 0,0 UV-I 0,0 C 45 % 53 % 0 % 1017,8 hPa 0,0 l/m 2,4 km/h (1 Bft) 0 min 0,0 km/h (0 Bft)
16.07.2010 20:54 28,1 C 26,7 C 0,0 UV-I 0,0 C 45 % 54 % 0 % 1017,8 hPa 0,0 l/m 3,6 km/h (1 Bft) 0 min 6,4 km/h (2 Bft)
16.07.2010 20:56 28,1 C 26,5 C 0,0 UV-I 0,0 C 45 % 56 % 0 % 1017,8 hPa 0,0 l/m 3,2 km/h (1 Bft) 0 min 6,4 km/h (2 Bft)
16.07.2010 21:00 28,1 C 26,0 C 0,0 UV-I 0,0 C 45 % 57 % 0 % 1017,8 hPa 0,0 l/m 4,4 km/h (1 Bft) 0 min 14,2 km/h (3 Bft)
16.07.2010 21:02 28,0 C 25,9 C 0,0 UV-I 0,0 C 46 % 58 % 0 % 1017,8 hPa 0,0 l/m 6,4 km/h (2 Bft) 0 min 14,2 km/h (3 Bft)
16.07.2010 21:04 28,0 C 25,6 C 0,0 UV-I 0,0 C 46 % 58 % 0 % 1017,8 hPa 0,0 l/m 7,2 km/h (2 Bft) 0 min 10,6 km/h (2 Bft)
16.07.2010 21:06 28,0 C 25,5 C 0,0 UV-I 0,0 C 46 % 59 % 0 % 1017,8 hPa 0,0 l/m 8,0 km/h (2 Bft) 0 min 11,9 km/h (2 Bft)
16.07.2010 21:08 28,0 C 25,5 C 0,0 UV-I 0,0 C 46 % 59 % 0 % 1017,9 hPa 0,0 l/m 8,0 km/h (2 Bft) 0 min 12,6 km/h (3 Bft)
16.07.2010 21:10 28,0 C 25,3 C 0,0 UV-I 0,0 C 46 % 60 % 0 % 1017,9 hPa 0,0 l/m 7,2 km/h (2 Bft) 0 min 12,6 km/h (3 Bft)
16.07.2010 21:12 28,0 C 25,1 C 0,1 UV-I 0,0 C 46 % 60 % 0 % 1017,9 hPa 0,0 l/m 5,2 km/h (1 Bft) 0 min 3,2 km/h (1 Bft)
16.07.2010 21:14 27,9 C 25,1 C 0,1 UV-I 0,0 C 46 % 61 % 0 % 1017,9 hPa 0,0 l/m 4,0 km/h (1 Bft) 0 min 5,5 km/h (1 Bft)
16.07.2010 21:16 27,9 C 24,8 C 0,0 UV-I 0,0 C 46 % 61 % 0 % 1017,9 hPa 0,0 l/m 4,4 km/h (1 Bft) 0 min 5,5 km/h (1 Bft)
16.07.2010 21:18 27,9 C 24,8 C 0,0 UV-I 0,0 C 47 % 61 % 0 % 1017,9 hPa 0,0 l/m 4,8 km/h (1 Bft) 0 min 4,8 km/h (1 Bft)
16.07.2010 21:20 27,8 C 24,6 C 0,0 UV-I 0,0 C 47 % 61 % 0 % 1017,9 hPa 0,0 l/m 5,2 km/h (1 Bft) 0 min 4,8 km/h (1 Bft)
16.07.2010 21:22 27,8 C 24,5 C 0,0 UV-I 0,0 C 47 % 61 % 0 % 1017,9 hPa 0,0 l/m 4,8 km/h (1 Bft) 0 min 6,1 km/h (2 Bft)
16.07.2010 21:24 27,8 C 24,5 C 0,0 UV-I 0,0 C 47 % 62 % 0 % 1017,9 hPa 0,0 l/m 5,6 km/h (1 Bft) 0 min 10,9 km/h (2 Bft)
16.07.2010 21:26 27,8 C 24,3 C 0,0 UV-I 0,0 C 47 % 63 % 0 % 1017,9 hPa 0,0 l/m 6,4 km/h (2 Bft) 0 min 10,9 km/h (2 Bft)
16.07.2010 21:28 27,8 C 24,3 C 0,0 UV-I 0,0 C 47 % 63 % 0 % 1018,2 hPa 0,0 l/m 6,0 km/h (2 Bft) 0 min 6,8 km/h (2 Bft)
16.07.2010 21:30 27,7 C 24,0 C 0,0 UV-I 0,0 C 47 % 64 % 0 % 1018,2 hPa 0,0 l/m 6,4 km/h (2 Bft) 0 min 6,1 km/h (2 Bft)
16.07.2010 21:32 27,7 C 23,8 C 0,0 UV-I 0,0 C 47 % 65 % 0 % 1018,2 hPa 0,0 l/m 6,8 km/h (2 Bft) 0 min 6,1 km/h (2 Bft)
16.07.2010 21:34 27,7 C 23,7 C 0,0 UV-I 0,0 C 48 % 66 % 0 % 1018,2 hPa 0,0 l/m 7,6 km/h (2 Bft) 0 min 7,1 km/h (2 Bft)
16.07.2010 21:36 27,6 C 23,6 C 0,0 UV-I 0,0 C 48 % 66 % 0 % 1018,2 hPa 0,0 l/m 8,0 km/h (2 Bft) 0 min 13,5 km/h (3 Bft)
16.07.2010 21:38 27,6 C 23,3 C 0,0 UV-I 0,0 C 49 % 71 % 0 % 1018,2 hPa 0,2 l/m 11,6 km/h (2 Bft) 0 min 22,5 km/h (4 Bft)
16.07.2010 21:40 27,6 C 22,4 C 0,0 UV-I 0,0 C 50 % 74 % 0 % 1018,2 hPa 0,0 l/m 12,4 km/h (3 Bft) 0 min 32,8 km/h (5 Bft)
16.07.2010 21:42 27,6 C 21,9 C 0,0 UV-I 0,0 C 50 % 74 % 0 % 1018,2 hPa 3,7 l/m 12,4 km/h (3 Bft) 0 min 8,4 km/h (2 Bft)
16.07.2010 21:44 27,6 C 21,2 C 0,0 UV-I 0,0 C 51 % 77 % 0 % 1018,2 hPa 1,1 l/m 11,2 km/h (2 Bft) 0 min 8,4 km/h (2 Bft)
16.07.2010 21:46 27,5 C 20,8 C 0,0 UV-I 0,0 C 51 % 79 % 0 % 1018,2 hPa 5,7 l/m 10,4 km/h (2 Bft) 0 min 5,1 km/h (1 Bft)
16.07.2010 21:50 27,4 C 20,4 C 0,0 UV-I 0,0 C 51 % 80 % 0 % 1020,1 hPa 1,3 l/m 4,0 km/h (1 Bft) 0 min 5,1 km/h (1 Bft)
16.07.2010 21:54 27,4 C 20,1 C 0,0 UV-I 0,0 C 52 % 82 % 0 % 1020,1 hPa 0,2 l/m 3,6 km/h (1 Bft) 0 min 8,0 km/h (2 Bft)
16.07.2010 21:56 27,2 C 20,0 C 0,0 UV-I 0,0 C 52 % 81 % 0 % 1020,1 hPa 0,1 l/m 4,0 km/h (1 Bft) 0 min 8,0 km/h (2 Bft)
16.07.2010 21:58 27,3 C 19,9 C 0,0 UV-I 0,0 C 52 % 82 % 0 % 1020,1 hPa 0,0 l/m 3,6 km/h (1 Bft) 0 min 8,0 km/h (2 Bft)
16.07.2010 22:00 27,3 C 19,8 C 0,0 UV-I 0,0 C 51 % 83 % 0 % 1020,1 hPa 0,0 l/m 4,4 km/h (1 Bft) 0 min 7,1 km/h (2 Bft)
16.07.2010 22:02 27,2 C 19,6 C 0,0 UV-I 0,0 C 52 % 83 % 0 % 1020,1 hPa 0,0 l/m 4,4 km/h (1 Bft) 0 min 3,5 km/h (1 Bft)
16.07.2010 22:04 27,2 C 19,6 C 0,0 UV-I 0,0 C 51 % 83 % 0 % 1020,1 hPa 0,0 l/m 4,4 km/h (1 Bft) 0 min 6,4 km/h (2 Bft)
16.07.2010 22:06 27,2 C 19,5 C 0,0 UV-I 0,0 C 52 % 83 % 0 % 1020,1 hPa 0,0 l/m 3,2 km/h (1 Bft) 0 min 0,0 km/h (0 Bft)
16.07.2010 22:08 27,1 C 19,5 C 0,0 UV-I 0,0 C 51 % 83 % 0 % 1019,3 hPa 0,0 l/m 2,8 km/h (1 Bft) 0 min 4,2 km/h (1 Bft)
16.07.2010 22:10 27,1 C 19,2 C 0,0 UV-I 0,0 C 52 % 84 % 0 % 1019,3 hPa 0,0 l/m 2,4 km/h (1 Bft) 0 min 4,2 km/h (1 Bft)
16.07.2010 22:12 27,1 C 19,2 C 0,0 UV-I 0,0 C 52 % 85 % 0 % 1019,3 hPa 0,0 l/m 2,8 km/h (1 Bft) 0 min 6,1 km/h (2 Bft)
16.07.2010 22:14 27,1 C 19,0 C 0,0 UV-I 0,0 C 52 % 84 % 0 % 1019,3 hPa 0,0 l/m 4,0 km/h (1 Bft) 0 min 6,4 km/h (2 Bft)
16.07.2010 22:16 27,0 C 19,0 C 0,0 UV-I 0,0 C 52 % 85 % 0 % 1019,3 hPa 0,0 l/m 4,8 km/h (1 Bft) 0 min 10,3 km/h (2 Bft)
16.07.2010 22:18 27,0 C 18,9 C 0,0 UV-I 0,0 C 52 % 85 % 0 % 1019,3 hPa 0,0 l/m 5,6 km/h (1 Bft) 0 min 10,3 km/h (2 Bft)
16.07.2010 22:20 27,0 C 18,9 C 0,0 UV-I 0,0 C 52 % 85 % 0 % 1019,3 hPa 0,0 l/m 5,6 km/h (1 Bft) 0 min 0,0 km/h (0 Bft)
16.07.2010 22:22 27,0 C 18,8 C 0,0 UV-I 0,0 C 52 % 86 % 0 % 1019,3 hPa 0,0 l/m 6,0 km/h (2 Bft) 0 min 9,7 km/h (2 Bft)
16.07.2010 22:24 27,0 C 18,7 C 0,0 UV-I 0,0 C 52 % 86 % 0 % 1019,3 hPa 0,0 l/m 4,4 km/h (1 Bft) 0 min 9,7 km/h (2 Bft)
16.07.2010 22:26 26,9 C 18,7 C 0,0 UV-I 0,0 C 52 % 86 % 0 % 1019,3 hPa 0,0 l/m 3,6 km/h (1 Bft) 0 min 0,0 km/h (0 Bft)
16.07.2010 22:28 26,9 C 18,7 C 0,0 UV-I 0,0 C 52 % 86 % 0 % 1019,6 hPa 0,0 l/m 2,0 km/h (1 Bft) 0 min 0,0 km/h (0 Bft)
16.07.2010 22:30 26,8 C 18,7 C 0,0 UV-I 0,0 C 53 % 87 % 0 % 1019,6 hPa 0,0 l/m 1,6 km/h (1 Bft) 0 min 0,0 km/h (0 Bft)
16.07.2010 22:34 26,8 C 18,7 C 0,0 UV-I 0,0 C 53 % 87 % 0 % 1019,6 hPa 0,0 l/m 0,4 km/h (0 Bft) 0 min 4,2 km/h (1 Bft)
16.07.2010 22:36 26,8 C 18,6 C 0,0 UV-I 0,0 C 53 % 87 % 0 % 1019,6 hPa 0,0 l/m 0,0 km/h (0 Bft) 0 min 4,2 km/h (1 Bft)
16.07.2010 22:38 26,8 C 18,6 C 0,0 UV-I 0,0 C 53 % 88 % 0 % 1019,6 hPa 0,0 l/m 0,4 km/h (0 Bft) 0 min 4,2 km/h (1 Bft)
16.07.2010 22:40 26,8 C 18,5 C 0,0 UV-I 0,0 C 53 % 87 % 0 % 1019,6 hPa 0,0 l/m 0,4 km/h (0 Bft) 0 min 4,2 km/h (1 Bft)
16.07.2010 22:42 26,7 C 18,5 C 0,0 UV-I 0,0 C 53 % 88 % 0 % 1019,6 hPa 0,0 l/m 0,4 km/h (0 Bft) 0 min 0,0 km/h (0 Bft)
16.07.2010 22:44 26,7 C 18,5 C 0,0 UV-I 0,0 C 54 % 88 % 0 % 1019,6 hPa 0,0 l/m 0,4 km/h (0 Bft) 0 min 3,9 km/h (1 Bft)
16.07.2010 22:46 26,7 C 18,6 C 0,0 UV-I 0,0 C 54 % 89 % 0 % 1019,6 hPa 0,0 l/m 0,4 km/h (0 Bft) 0 min 3,9 km/h (1 Bft)
16.07.2010 22:48 26,6 C 18,6 C 0,0 UV-I 0,0 C 54 % 89 % 0 % 1019,9 hPa 0,0 l/m 0,4 km/h (0 Bft) 0 min 0,0 km/h (0 Bft)
16.07.2010 22:50 26,6 C 18,5 C 0,0 UV-I 0,0 C 54 % 89 % 0 % 1019,9 hPa 0,0 l/m 0,4 km/h (0 Bft) 0 min 0,0 km/h (0 Bft)
16.07.2010 22:52 26,6 C 18,5 C 0,0 UV-I 0,0 C 54 % 89 % 0 % 1019,9 hPa 0,0 l/m 0,4 km/h (0 Bft) 0 min 0,0 km/h (0 Bft)
16.07.2010 22:54 26,6 C 18,4 C 0,0 UV-I 0,0 C 54 % 89 % 0 % 1019,9 hPa 0,0 l/m 0,4 km/h (0 Bft) 0 min 0,0 km/h (0 Bft)
16.07.2010 22:56 26,6 C 18,4 C 0,0 UV-I 0,0 C 55 % 89 % 0 % 1019,9 hPa 0,0 l/m 0,0 km/h (0 Bft) 0 min 0,0 km/h (0 Bft)
16.07.2010 23:00 26,5 C 18,4 C 0,0 UV-I 0,0 C 55 % 89 % 0 % 1019,9 hPa 0,0 l/m 0,0 km/h (0 Bft) 0 min 0,0 km/h (0 Bft)
16.07.2010 23:02 26,5 C 18,4 C 0,0 UV-I 0,0 C 55 % 90 % 0 % 1019,9 hPa 0,0 l/m 0,0 km/h (0 Bft) 0 min 0,0 km/h (0 Bft)
16.07.2010 23:04 26,5 C 18,4 C 0,0 UV-I 0,0 C 55 % 90 % 0 % 1019,9 hPa 0,0 l/m 0,4 km/h (0 Bft) 0 min 0,0 km/h (0 Bft)
16.07.2010 23:06 26,5 C 18,5 C 0,0 UV-I 0,0 C 55 % 90 % 0 % 1019,9 hPa 0,0 l/m 0,4 km/h (0 Bft) 0 min 0,0 km/h (0 Bft)
16.07.2010 23:08 26,4 C 18,5 C 0,0 UV-I 0,0 C 56 % 90 % 0 % 1020,3 hPa 0,0 l/m 0,4 km/h (0 Bft) 0 min 0,0 km/h (0 Bft)
16.07.2010 23:10 26,4 C 18,4 C 0,0 UV-I 0,0 C 55 % 90 % 0 % 1020,3 hPa 0,0 l/m 0,4 km/h (0 Bft) 0 min 0,0 km/h (0 Bft)
16.07.2010 23:12 26,4 C 18,4 C 0,0 UV-I 0,0 C 56 % 90 % 0 % 1020,3 hPa 0,0 l/m 0,4 km/h (0 Bft) 0 min 0,0 km/h (0 Bft)
16.07.2010 23:14 26,4 C 18,4 C 0,0 UV-I 0,0 C 56 % 90 % 0 % 1020,3 hPa 0,0 l/m 0,0 km/h (0 Bft) 0 min 0,0 km/h (0 Bft)
16.07.2010 23:16 26,4 C 18,4 C 0,0 UV-I 0,0 C 56 % 90 % 0 % 1020,3 hPa 0,0 l/m 0,0 km/h (0 Bft) 0 min 0,0 km/h (0 Bft)
16.07.2010 23:18 26,4 C 18,4 C 0,0 UV-I 0,0 C 56 % 90 % 0 % 1020,3 hPa 0,0 l/m 0,0 km/h (0 Bft) 0 min 0,0 km/h (0 Bft)
16.07.2010 23:20 26,4 C 18,4 C 0,0 UV-I 0,0 C 56 % 90 % 0 % 1020,3 hPa 0,0 l/m 0,0 km/h (0 Bft) 0 min 0,0 km/h (0 Bft)
16.07.2010 23:22 26,4 C 18,4 C 0,0 UV-I 0,0 C 56 % 90 % 0 % 1020,3 hPa 0,1 l/m 0,0 km/h (0 Bft) 0 min 0,0 km/h (0 Bft)
16.07.2010 23:24 26,2 C 18,4 C 0,0 UV-I 0,0 C 56 % 90 % 0 % 1020,3 hPa 0,2 l/m 0,0 km/h (0 Bft) 0 min 0,0 km/h (0 Bft)
16.07.2010 23:26 26,3 C 18,5 C 0,0 UV-I 0,0 C 56 % 90 % 0 % 1020,3 hPa 0,0 l/m 0,0 km/h (0 Bft) 0 min 0,0 km/h (0 Bft)
16.07.2010 23:28 26,3 C 18,5 C 0,0 UV-I 0,0 C 56 % 90 % 0 % 1020,4 hPa 0,0 l/m 0,0 km/h (0 Bft) 0 min 0,0 km/h (0 Bft)
16.07.2010 23:30 26,3 C 18,4 C 0,0 UV-I 0,0 C 56 % 91 % 0 % 1020,4 hPa 0,1 l/m 0,0 km/h (0 Bft) 0 min 0,0 km/h (0 Bft)
16.07.2010 23:34 26,2 C 18,4 C 0,0 UV-I 0,0 C 57 % 91 % 0 % 1020,4 hPa 0,1 l/m 0,0 km/h (0 Bft) 0 min 0,0 km/h (0 Bft)
16.07.2010 23:36 26,2 C 18,4 C 0,0 UV-I 0,0 C 57 % 91 % 0 % 1020,4 hPa 0,0 l/m 0,4 km/h (0 Bft) 0 min 3,2 km/h (1 Bft)
16.07.2010 23:38 26,2 C 18,5 C 0,0 UV-I 0,0 C 57 % 91 % 0 % 1020,4 hPa 0,0 l/m 1,2 km/h (1 Bft) 0 min 3,2 km/h (1 Bft)
16.07.2010 23:40 26,2 C 18,5 C 0,0 UV-I 0,0 C 57 % 91 % 0 % 1020,4 hPa 0,0 l/m 2,8 km/h (1 Bft) 0 min 6,4 km/h (2 Bft)
16.07.2010 23:42 26,2 C 18,5 C 0,0 UV-I 0,0 C 57 % 91 % 0 % 1020,4 hPa 0,0 l/m 3,2 km/h (1 Bft) 0 min 6,4 km/h (2 Bft)
16.07.2010 23:44 26,2 C 18,5 C 0,0 UV-I 0,0 C 57 % 92 % 0 % 1020,4 hPa 0,0 l/m 3,6 km/h (1 Bft) 0 min 5,1 km/h (1 Bft)
16.07.2010 23:48 26,2 C 18,5 C 0,0 UV-I 0,0 C 57 % 92 % 0 % 1020,2 hPa 0,2 l/m 4,4 km/h (1 Bft) 0 min 0,0 km/h (0 Bft)
16.07.2010 23:53 26,2 C 18,6 C 0,0 UV-I 0,0 C 58 % 92 % 0 % 1020,2 hPa 0,1 l/m 3,6 km/h (1 Bft) 0 min 0,0 km/h (0 Bft)
16.07.2010 23:56 26,1 C 18,7 C 0,0 UV-I 0,0 C 58 % 92 % 0 % 1020,2 hPa 0,0 l/m 2,8 km/h (1 Bft) 0 min 5,1 km/h (1 Bft)
16.07.2010 23:58 26,1 C 18,7 C 0,0 UV-I 0,0 C 58 % 92 % 0 % 1020,2 hPa 0,0 l/m 2,0 km/h (1 Bft) 0 min 5,1 km/h (1 Bft)
_ Min-Zeit 08:20 05:36 00:00 00:00 16:40 15:50 00:00 07:28 - 00:08 - 00:02
Minimum _ 23,8 C 15,2 C 0,0 UV-I 0,0 C 40 % 37 % 0 % 1016,5 hPa - 0,0 km/h (0 Bft) - 0,0 km/h (0 Bft)
_ Max-Zeit 18:04 15:50 10:16 09:08 23:53 23:44 08:26 15:48 21:46 09:40 08:26 21:40
Maximum _ 30,5 C 30,8 C 17,8 UV-I 5,7 C 58 % 92 % 100 % 1020,6 hPa 5,7 l/m 12,4 km/h
S-SO (3 Bft)
2 min 32,8 km/h
W-NW (5 Bft)
Durchschnitt _ 26,2 C 22,9 C 4,6 UV-I 1,8 C 45 % 57 % 41 % 1017,9 hPa #13,1 l/m 5,5 km/h (1 Bft) #8:50 h 8,2 km/h (2 Bft)
© 2012 W. Hausmann